GFSCGP_850_spd_084.txt.gz
Wind_Speed
6 3 6 7 6 7 2 5 5 3 5 5 7 5 8 9 8 11 16 19 23 25 26 26 26 30 27 25 25 27 21 18 19 19 17 15 13 13 13 12 10 9 10 9
2 7 10 11 11 11 9 5 4 2 3 4 5 9 8 7 8 17 19 15 14 17 22 24 27 27 27 25 24 24 21 18 19 16 12 11 10 12 11 11 10 10 10 10
7 9 11 8 8 10 8 4 5 4 3 3 4 5 4 6 13 14 15 17 21 20 20 24 27 26 26 26 25 23 17 19 16 16 14 10 12 12 13 13 12 10 11 12
5 4 7 4 7 8 8 6 5 6 4 3 1 4 4 3 7 4 8 9 12 13 16 19 23 25 27 27 24 19 19 17 16 15 13 10 7 7 7 9 10 12 14 16
4 3 4 4 4 6 6 1 5 4 4 2 1 1 6 1 6 7 7 9 9 10 10 14 21 24 27 28 22 21 18 17 16 14 11 11 9 7 9 10 12 13 15 17
4 1 3 1 3 2 8 6 7 5 3 1 5 5 5 5 5 0 5 10 9 7 9 9 16 22 28 27 23 21 20 18 17 14 14 15 15 15 15 14 15 16 18 19
4 3 4 3 4 5 4 5 3 2 1 4 1 5 10 2 2 3 9 11 7 7 9 9 13 20 27 26 23 22 20 20 20 19 19 19 18 18 18 19 18 18 19 19
6 2 5 6 1 4 2 6 4 5 4 4 2 5 5 2 3 1 11 7 5 6 8 10 13 18 26 25 22 21 19 19 18 17 18 18 18 17 16 16 16 15 15 15
8 5 5 1 2 3 3 2 3 4 2 2 2 5 3 2 3 5 7 7 6 7 10 14 17 22 25 23 21 19 17 15 13 11 10 10 10 10 12 13 14 14 15 16
6 3 1 2 3 1 4 6 3 3 2 2 3 4 5 4 6 4 4 9 10 12 16 19 20 22 21 18 16 15 13 11 9 8 8 8 9 10 12 13 14 15 16 17
6 2 3 8 1 4 2 1 6 4 3 2 2 5 5 4 8 9 10 13 14 16 19 20 20 19 17 15 14 12 9 6 4 5 7 9 11 13 14 15 15 16 18 17
3 3 3 4 3 1 1 2 5 4 5 2 2 5 0 5 7 17 18 17 16 17 19 19 19 17 16 13 11 8 5 4 4 6 8 11 13 14 13 14 16 16 16 18
2 0 2 3 3 4 3 3 3 4 3 4 5 5 1 2 5 18 20 19 19 19 19 18 16 15 13 11 10 8 5 4 6 9 11 12 13 13 14 16 17 18 19 19
3 1 4 4 3 2 4 4 4 4 3 5 6 5 3 3 6 9 17 20 21 20 18 16 15 14 13 11 10 7 6 7 8 10 11 10 11 14 16 18 18 18 18 20
2 2 2 5 5 3 3 5 5 7 4 5 3 6 6 6 8 16 21 20 20 20 18 17 16 15 14 12 9 6 6 8 9 9 10 12 14 16 17 17 17 18 21 24
2 2 2 3 3 2 4 6 6 4 2 6 1 6 6 2 8 13 18 19 21 21 19 17 16 15 13 9 6 6 6 7 9 10 11 14 15 15 15 16 17 20 23 25
2 2 4 4 5 6 5 3 4 4 4 5 5 8 4 2 1 4 11 17 21 21 19 17 15 13 10 7 5 6 7 8 10 11 12 14 14 15 16 16 19 22 24 26
1 2 1 3 5 2 4 1 1 4 5 5 2 1 2 3 6 2 3 11 15 16 18 16 15 12 7 4 5 6 7 9 10 11 13 15 17 18 18 19 21 24 27 27
1 2 2 2 1 6 2 1 0 1 5 2 4 5 5 11 6 8 4 4 9 13 15 14 12 7 3 2 4 6 7 8 9 11 13 15 17 18 19 21 24 27 28 28
3 3 3 2 2 3 3 1 1 1 4 5 4 6 8 7 3 3 5 7 13 15 15 12 8 4 1 2 4 6 7 9 10 13 17 18 18 18 20 22 25 27 27 27
2 2 4 2 2 7 5 2 0 4 5 3 3 9 13 4 5 10 14 16 16 15 12 9 6 3 2 4 7 9 10 12 14 15 17 16 17 18 21 23 25 26 27 29
5 4 3 2 1 5 5 2 3 4 1 2 3 7 12 7 9 17 17 17 15 12 10 7 4 2 3 6 8 9 12 13 15 15 16 18 20 20 22 24 24 26 27 30
2 5 2 7 5 4 8 4 5 2 2 4 4 7 12 11 15 18 19 16 13 10 8 4 2 3 6 7 10 12 14 13 14 15 18 19 20 21 23 23 25 27 27 28
2 2 2 3 2 7 17 15 14 8 6 5 5 7 10 11 16 19 18 15 12 9 5 2 3 6 8 9 12 12 12 12 14 16 17 19 22 22 21 22 24 25 27 25
3 1 1 6 11 13 14 15 11 14 12 9 8 7 9 11 18 18 17 13 10 6 3 1 5 8 9 10 10 11 12 13 13 16 20 22 21 21 22 24 25 27 24 21
9 6 4 5 4 5 9 7 8 14 13 12 10 11 12 12 17 17 14 11 7 4 1 4 7 8 10 10 10 11 12 13 17 20 23 22 21 22 23 25 27 22 22 23

GFSCGP_850_spd_087.txt.gz
Wind_Speed
6 4 11 11 10 12 4 5 11 5 7 6 9 6 8 6 5 9 13 20 22 28 27 30 28 29 27 27 26 24 22 22 21 18 19 18 15 13 12 12 12 11 11 11
1 12 14 12 12 13 19 14 12 2 3 4 6 10 5 8 7 15 18 20 20 19 21 24 26 30 30 28 25 23 22 22 19 17 16 12 10 12 11 13 13 12 12 12
8 13 8 12 13 12 16 14 10 8 4 2 5 4 6 7 14 14 15 17 16 16 17 19 25 29 29 29 27 22 22 18 16 17 15 13 13 12 13 14 14 12 12 12
7 8 13 8 13 14 12 11 9 7 6 5 1 3 4 6 9 8 16 18 17 19 21 22 23 28 28 25 22 22 21 17 18 17 16 13 9 7 8 10 11 12 13 14
8 4 6 11 7 11 8 3 6 2 2 2 1 2 4 1 5 10 10 13 16 17 18 20 20 21 22 20 22 23 18 19 17 16 16 13 11 8 9 9 11 13 15 16
9 4 1 2 2 2 9 6 7 1 2 3 4 4 4 5 5 0 3 14 15 13 12 13 15 16 17 18 21 21 21 20 19 18 16 15 14 13 12 12 12 14 16 17
7 4 4 3 4 4 3 5 0 2 3 3 0 4 9 3 2 2 5 13 13 12 11 11 13 16 19 21 22 23 22 22 20 19 18 18 17 16 16 16 16 16 18 18
7 5 7 6 3 1 1 7 3 3 4 3 2 5 4 0 2 5 5 11 9 8 10 10 11 14 19 22 24 25 24 22 19 19 18 17 16 16 15 14 13 13 14 14
6 6 5 2 3 1 2 6 5 4 2 1 1 5 4 1 2 2 5 6 6 7 9 11 12 15 21 24 24 23 20 18 16 14 13 11 9 8 9 10 11 11 12 14
7 4 3 5 2 1 4 5 2 3 1 1 2 4 4 2 6 5 4 6 6 8 11 13 16 19 22 22 20 17 14 11 10 9 8 7 7 7 8 9 11 13 14 15
7 3 6 5 3 2 2 1 5 4 2 1 3 3 4 3 5 9 8 7 8 11 15 17 19 20 19 18 16 14 12 10 9 7 6 6 6 8 10 12 13 14 15 16
2 2 1 6 6 3 3 1 3 3 3 2 1 4 1 2 3 11 11 11 12 14 17 18 19 20 19 17 15 13 11 9 8 6 5 5 8 10 11 12 14 15 15 15
3 1 1 3 3 2 2 0 4 4 2 5 3 4 1 3 1 11 14 14 15 17 18 19 19 18 17 16 14 11 10 8 6 4 5 8 10 11 12 14 15 15 16 16
2 2 3 3 2 2 3 3 3 3 2 4 5 5 5 3 2 6 12 16 18 18 18 19 18 17 16 14 12 11 9 5 4 5 7 8 9 11 13 14 15 15 16 16
3 2 3 6 6 3 3 4 5 6 3 5 1 4 5 4 4 11 16 18 19 19 19 18 18 17 16 15 13 9 6 4 4 5 7 9 10 12 12 12 14 14 16 19
3 2 4 3 3 3 4 6 3 4 4 5 3 6 5 3 2 10 15 19 20 21 19 18 17 16 15 13 10 7 4 4 6 8 9 9 10 11 12 14 15 17 19 21
2 2 4 4 4 4 3 3 3 2 3 4 4 4 2 2 4 5 11 17 19 20 20 19 16 15 14 11 7 4 5 6 7 7 8 10 12 14 15 17 18 19 21 24
2 2 2 4 6 2 0 1 2 4 4 4 3 2 3 2 5 4 4 10 14 16 18 17 16 15 12 8 5 4 4 5 5 7 9 11 13 15 16 17 18 20 24 26
3 3 2 2 2 6 2 2 1 2 2 2 3 4 5 9 6 8 5 7 8 11 14 15 15 13 10 6 4 2 3 4 6 8 10 12 15 15 16 17 19 22 26 27
4 3 3 2 1 2 3 2 2 1 3 5 1 5 6 4 2 2 5 9 11 13 15 16 14 10 7 4 1 2 4 5 8 10 11 14 15 16 17 19 21 23 25 25
1 2 4 2 2 6 5 4 2 3 4 2 2 8 11 3 2 11 13 15 15 16 17 14 11 7 4 1 2 4 6 7 10 11 13 14 16 17 18 20 21 23 24 25
5 4 3 2 1 2 2 0 0 4 1 2 5 9 12 6 11 16 17 18 18 17 15 11 7 4 1 2 4 5 7 10 11 11 12 14 16 17 19 21 21 22 24 25
2 4 3 6 5 3 3 6 5 4 4 4 5 6 10 12 17 19 20 19 16 14 12 8 4 1 2 4 5 8 9 9 10 11 13 14 17 19 21 20 21 23 24 26
2 1 1 2 1 5 7 9 14 15 10 6 6 5 11 12 17 20 20 18 16 12 9 6 2 2 4 6 8 8 9 10 11 12 14 17 20 20 19 19 21 23 24 24
2 0 2 5 8 9 8 10 10 10 12 10 7 6 9 12 19 20 20 17 13 10 7 3 2 5 7 8 8 9 9 10 11 13 16 19 21 20 20 20 22 24 22 20
8 6 3 4 3 2 9 12 14 12 9 9 9 9 10 13 17 19 17 14 11 8 4 1 5 8 8 8 8 9 10 11 12 16 19 20 20 19 20 22 25 20 20 18

GFSCGP_850_spd_090.txt.gz
Wind_Speed
5 7 11 14 14 18 16 17 21 18 17 17 22 18 12 14 14 16 17 17 19 21 21 20 19 24 32 27 32 29 29 22 23 21 21 20 19 16 13 12 12 13 13 13
6 12 15 15 13 15 17 18 19 18 17 17 19 20 17 12 14 17 19 19 20 17 19 21 27 25 34 30 27 27 27 23 23 20 20 18 17 16 14 13 14 14 13 13
17 20 21 11 14 16 18 18 19 18 12 16 15 19 21 13 14 15 17 17 18 19 19 21 22 26 26 27 27 25 26 22 21 21 19 18 17 14 14 14 14 15 14 13
9 10 11 12 14 15 18 18 21 16 11 13 15 12 20 18 16 15 19 18 17 16 17 16 20 24 26 26 27 25 24 22 22 20 21 17 13 11 12 12 14 14 13 13
7 18 17 12 16 14 18 15 16 19 13 17 11 10 10 8 16 17 18 22 20 18 22 21 20 19 21 22 25 26 23 25 21 23 20 17 13 10 9 10 10 13 14 15
14 14 7 9 7 7 11 10 12 3 3 7 14 12 11 10 11 11 9 16 18 16 14 15 16 17 19 20 22 23 25 24 24 22 20 18 15 12 11 10 10 12 14 16
12 6 9 6 8 4 8 10 4 5 3 4 3 7 8 4 3 1 1 9 12 10 9 10 13 16 18 18 20 23 26 28 26 23 21 18 16 14 13 12 12 14 16 18
6 6 12 11 6 5 7 10 2 3 5 6 4 6 3 4 1 0 1 7 8 7 6 7 10 12 15 18 20 25 28 27 24 21 19 17 15 15 15 15 16 16 15 15
5 5 8 6 6 5 2 2 6 6 3 3 5 5 6 1 2 2 6 8 6 5 6 7 10 11 15 19 22 26 25 22 20 17 15 14 14 15 14 12 11 11 13 14
5 4 8 12 5 2 3 11 4 6 2 3 4 1 3 3 3 5 7 8 7 7 8 10 11 14 16 18 21 21 19 17 15 14 13 12 11 10 9 8 10 12 13 13
7 3 7 6 5 7 1 4 6 1 3 4 3 6 6 7 6 6 8 8 9 10 11 13 14 15 18 19 19 18 17 15 14 13 11 9 7 7 9 10 11 11 12 14
3 3 1 5 8 6 7 6 5 3 2 2 3 3 5 6 4 6 10 10 11 12 13 15 17 19 19 19 18 18 17 15 12 10 8 7 7 8 9 9 10 13 14 15
2 1 4 3 7 2 4 2 2 2 2 2 1 3 2 7 6 7 11 12 13 14 15 16 17 16 16 16 17 16 14 12 10 9 7 6 7 8 7 9 12 13 13 12
6 3 4 6 6 3 5 3 2 4 2 1 6 8 6 7 5 8 11 12 14 15 16 16 15 15 15 15 15 14 13 11 9 6 6 6 6 8 9 11 12 13 12 12
4 6 3 9 11 7 8 7 5 5 7 5 5 4 8 8 3 10 14 15 15 15 15 14 15 14 15 14 14 13 11 8 6 5 5 6 7 9 11 12 12 12 13 12
3 4 5 4 1 2 7 8 7 8 7 9 10 12 5 3 3 9 13 15 15 15 14 14 14 14 14 13 12 10 8 6 5 5 4 6 9 11 11 11 12 11 13 13
4 5 4 3 3 7 1 4 1 2 3 5 5 4 6 3 5 5 9 12 13 15 15 15 15 14 13 12 10 8 7 6 4 3 5 8 10 10 9 12 14 15 14 15
6 6 3 4 7 1 4 2 3 4 4 5 8 4 4 3 4 5 3 8 11 14 15 14 14 13 13 11 9 7 5 3 4 5 6 7 8 10 13 14 15 14 14 16
7 5 3 3 3 2 2 3 3 4 4 6 3 2 3 4 4 6 3 6 7 10 12 12 12 12 12 10 7 4 2 4 5 3 4 7 11 12 13 14 13 14 15 17
2 6 4 2 1 2 3 1 1 2 3 3 1 3 5 3 2 3 4 8 10 11 12 14 13 12 9 7 4 2 2 3 4 6 8 12 13 13 14 13 14 17 19 19
3 3 6 4 3 1 2 2 2 1 4 2 0 3 5 1 3 7 9 12 13 14 15 14 12 9 6 4 2 2 3 4 8 10 11 12 13 15 16 17 17 18 17 20
2 3 3 2 2 1 1 1 2 2 1 1 1 3 5 3 8 11 12 14 15 15 14 11 9 6 3 1 2 2 4 9 9 9 11 12 13 15 17 16 15 15 16 18
3 2 2 4 2 2 4 7 5 4 2 2 2 3 7 9 11 13 14 14 14 13 12 10 6 3 1 3 4 3 7 8 8 9 8 10 13 13 13 14 14 15 16 17
2 1 3 3 2 2 4 6 6 8 9 7 5 5 8 11 15 15 15 14 14 12 10 7 3 1 2 5 5 6 7 8 8 7 8 11 13 15 13 13 13 14 15 16
3 3 2 6 9 3 1 5 14 13 8 9 8 6 9 12 16 17 16 15 13 11 9 5 2 2 4 6 7 8 8 8 8 8 10 13 13 12 12 12 13 15 14 16
14 10 6 5 2 4 10 8 20 17 10 9 9 9 11 13 17 18 17 15 13 10 7 3 2 4 6 7 7 8 9 9 9 9 12 12 11 11 11 13 14 15 19 17

GFSCGP_850_spd_093.txt.gz
Wind_Speed
7 9 13 17 13 17 19 20 23 20 19 22 21 22 21 26 14 19 21 24 22 23 25 26 28 29 27 26 15 17 29 28 27 21 19 19 19 19 16 14 11 12 12 13
10 15 18 12 16 17 18 20 21 20 20 22 21 23 22 23 17 20 23 23 24 23 23 27 30 33 36 31 23 29 31 29 25 21 22 20 17 16 14 14 12 13 12 11
19 17 12 11 14 16 16 17 19 19 20 22 20 23 20 23 20 19 21 20 19 22 24 26 28 28 27 22 23 25 26 25 23 21 21 16 15 15 15 14 13 13 13 12
8 6 16 15 17 13 16 14 16 18 17 15 17 15 20 21 21 18 21 21 22 19 15 20 25 25 24 21 23 24 27 26 22 21 21 22 20 16 13 12 12 13 13 12
16 16 14 14 12 13 15 15 14 17 17 19 17 14 18 22 22 21 19 23 21 19 19 17 17 21 20 20 21 24 23 22 19 23 22 22 14 11 10 10 11 10 11 13
18 6 5 11 16 16 16 12 11 13 14 11 19 11 19 16 24 22 25 26 24 20 19 18 15 14 17 18 19 19 19 17 20 22 19 20 16 13 12 12 11 11 11 11
13 6 10 8 16 7 8 7 2 4 4 6 16 8 8 7 8 2 17 22 18 17 15 15 16 16 15 19 17 18 21 23 23 21 20 20 16 13 11 10 9 8 8 9
7 7 12 17 7 8 14 1 3 4 2 4 4 6 11 6 11 15 10 11 15 13 12 12 13 14 14 15 16 18 20 21 21 22 20 19 17 14 10 9 8 8 8 8
7 3 13 14 8 5 7 6 3 4 10 3 6 7 6 9 9 8 12 13 13 11 11 12 13 13 14 16 17 18 21 21 22 22 17 16 13 13 11 11 9 9 8 11
3 8 9 9 7 3 4 11 2 3 3 2 9 20 7 9 8 8 9 13 11 11 12 13 14 15 15 16 18 19 20 21 20 16 13 12 10 10 8 8 8 8 9 9
8 5 10 6 7 8 1 3 1 7 1 4 4 8 10 11 6 8 10 12 12 13 13 14 15 15 16 16 18 18 18 18 16 16 13 12 9 7 6 5 6 6 8 9
6 7 10 6 8 3 6 7 7 3 8 6 4 6 9 10 7 11 13 13 13 13 15 15 16 17 17 17 18 17 16 16 14 13 11 9 8 7 5 4 3 5 5 10
10 5 10 4 5 3 8 9 7 6 2 7 5 3 9 11 8 11 13 13 13 14 15 16 17 17 17 17 16 16 14 13 12 10 9 7 6 4 4 3 5 6 6 7
5 9 12 10 13 7 9 10 6 7 4 5 3 6 7 10 6 8 11 13 14 14 15 16 15 15 15 14 14 13 12 11 10 9 7 5 3 3 3 5 8 6 7 8
8 8 13 13 14 9 8 9 8 7 7 5 9 9 11 10 6 6 10 12 14 14 14 14 14 13 13 12 12 11 10 9 7 5 4 4 3 4 6 5 5 7 8 9
10 8 15 15 3 5 6 6 6 8 8 8 7 4 7 8 6 7 9 10 11 12 12 12 12 12 11 11 10 9 8 7 5 5 4 3 3 3 4 6 7 8 10 12
10 6 8 4 2 7 4 7 4 4 3 6 6 6 9 8 7 5 7 8 10 11 12 12 11 10 10 9 8 7 6 5 4 3 2 2 3 5 6 7 9 11 12 13
8 9 5 6 11 3 4 4 2 3 3 7 6 3 5 5 6 6 4 5 7 9 10 10 10 10 9 9 8 7 5 3 2 2 3 3 4 6 8 9 10 11 12 14
10 6 5 3 7 4 5 4 4 5 5 6 4 3 5 5 7 11 6 5 5 8 9 10 10 10 9 8 6 5 3 2 1 2 3 5 7 8 8 10 11 12 13 15
5 7 5 4 2 2 5 3 1 3 3 4 3 2 2 2 3 5 7 9 11 12 11 12 11 10 9 7 5 4 2 1 3 5 5 6 8 8 10 12 13 14 15 16
4 5 9 8 4 1 4 3 0 3 4 4 2 2 1 3 5 9 10 12 12 13 13 13 11 9 7 6 4 1 2 3 4 6 6 7 8 10 12 13 14 15 16 17
3 3 4 3 3 4 3 2 4 4 2 2 1 0 3 7 9 11 12 13 13 14 13 11 10 8 6 3 2 2 3 4 5 6 7 8 9 11 13 15 15 15 16 18
4 2 4 2 2 5 5 6 4 4 5 4 2 2 6 9 11 12 13 13 13 12 12 10 8 7 4 3 2 3 4 5 6 7 8 9 11 12 14 15 16 16 15 16
5 2 3 4 3 4 2 2 4 5 5 6 5 3 7 10 13 14 13 13 12 11 10 8 6 4 1 2 3 3 4 6 7 8 9 11 13 15 15 14 13 14 15 16
9 3 5 9 9 4 6 3 5 10 10 6 5 5 8 11 14 14 14 13 12 10 9 7 4 2 1 3 3 4 6 7 7 9 11 13 14 13 13 12 13 15 14 17
19 17 12 10 3 3 7 2 10 12 10 8 7 6 8 12 14 15 14 13 12 10 8 6 3 1 1 2 3 4 7 6 6 9 11 12 13 12 13 14 15 14 20 22

GFSCGP_850_spd_099.txt.gz
Wind_Speed
3 1 5 4 4 9 6 8 10 12 13 8 14 15 10 16 20 18 22 16 30 34 33 42 39 42 42 41 40 37 36 34 37 32 29 28 25 18 18 16 15 12 13 15
6 4 5 5 8 8 8 10 10 10 7 7 13 14 11 12 10 23 26 27 24 33 28 38 39 43 44 45 35 37 39 35 35 35 30 28 20 19 17 18 16 13 12 15
3 10 10 9 8 9 7 7 8 13 9 3 7 10 9 14 14 23 30 23 20 23 31 28 39 44 47 40 38 42 40 33 31 26 28 25 19 20 23 22 20 15 12 14
6 4 7 7 9 8 9 4 8 10 5 5 2 11 8 9 14 8 19 26 21 28 23 27 31 37 45 41 39 46 35 36 33 25 28 25 19 27 27 23 21 16 14 14
7 5 4 4 5 7 9 16 5 6 5 2 8 2 7 5 10 7 9 27 20 30 26 27 35 35 41 38 37 42 32 31 26 25 25 17 22 22 25 22 20 18 17 15
12 4 1 3 9 9 1 4 8 3 2 4 5 5 5 2 3 10 17 27 27 32 24 34 39 35 33 31 31 31 31 25 21 21 22 14 26 26 22 22 20 18 18 18
6 4 3 4 6 5 5 4 3 4 2 2 9 3 5 11 10 10 19 21 25 29 24 26 29 27 27 28 30 29 24 21 19 22 26 22 21 22 20 19 17 18 18 17
4 8 3 5 4 5 6 4 1 3 5 4 9 7 6 12 15 21 11 10 22 24 22 22 20 23 21 24 26 23 20 16 16 18 22 19 21 21 15 15 14 14 14 15
4 6 9 11 4 3 5 3 6 2 2 3 2 5 8 13 6 18 18 33 28 22 21 18 17 16 18 21 16 15 12 9 13 16 19 24 19 20 20 18 17 17 19 19
4 6 6 8 3 2 2 7 1 2 5 5 7 11 6 5 7 12 11 12 20 17 14 11 8 9 9 8 8 9 11 13 19 21 21 22 21 20 19 19 18 19 19 17
3 1 8 5 3 2 4 3 3 3 1 3 4 5 6 9 9 10 7 22 20 13 14 16 14 12 11 12 12 12 12 16 20 20 20 21 20 19 19 17 16 16 15 15
1 2 5 8 9 4 3 3 3 3 3 0 1 3 6 9 7 15 17 17 20 19 19 19 19 15 13 15 15 16 19 20 18 17 18 17 15 13 13 11 10 10 9 9
4 3 5 10 7 5 4 5 4 3 3 0 3 3 4 7 11 16 19 20 22 20 16 13 13 15 16 15 16 17 17 19 19 17 17 14 13 11 9 7 6 6 7 10
2 2 5 5 9 5 8 6 5 4 2 2 2 1 6 4 7 10 14 15 16 19 18 18 19 18 18 18 18 20 19 18 17 15 13 13 11 9 6 5 6 8 9 10
2 3 4 9 15 12 9 4 6 3 2 2 3 3 4 2 7 12 15 15 15 17 19 20 21 21 19 17 16 16 16 14 12 10 9 8 6 5 5 7 8 9 9 10
6 4 5 7 6 5 3 6 5 4 6 5 4 5 6 14 16 16 16 15 16 17 18 18 18 18 16 13 12 11 11 10 8 7 4 3 4 5 6 6 7 9 10 12
3 1 5 5 8 9 4 4 3 4 4 1 3 1 3 7 13 10 12 17 17 16 16 17 15 13 12 9 7 9 10 7 5 3 2 3 4 6 7 8 10 11 12 13
4 3 1 5 7 3 4 1 3 8 4 6 5 4 8 9 12 14 9 17 19 18 17 16 15 15 12 10 11 11 10 8 4 2 3 4 6 7 9 11 13 14 14 15
11 4 3 0 2 5 1 2 1 3 2 3 4 5 9 11 12 15 12 19 21 20 18 16 16 15 14 14 12 8 5 4 4 4 4 5 8 11 13 14 14 14 17 18
4 4 3 3 1 2 2 1 0 2 2 1 4 6 7 8 2 2 10 17 20 19 17 18 15 13 11 8 6 4 4 3 4 5 7 10 12 11 11 12 14 17 17 18
2 2 6 4 3 5 2 2 2 1 5 3 6 5 5 4 5 17 14 15 16 16 15 13 11 9 8 8 5 3 2 3 5 8 11 9 8 10 11 14 17 17 17 17
6 5 4 2 2 5 1 1 2 4 4 4 5 5 6 13 18 17 15 17 17 17 16 13 11 10 10 8 5 3 4 4 9 8 6 5 8 10 14 17 18 20 16 19
2 5 4 6 5 7 3 3 4 5 6 3 4 5 6 16 18 17 18 18 18 18 17 12 10 10 8 5 5 5 4 7 6 3 4 6 10 13 15 18 18 18 17 19
5 5 1 3 3 6 9 7 6 6 3 4 5 6 9 14 18 18 18 20 20 17 14 11 10 7 4 0 2 3 5 7 6 6 8 10 12 16 18 16 13 16 19 21
5 4 3 4 9 8 9 12 12 5 2 3 5 8 10 12 17 18 20 20 19 17 14 13 11 8 3 2 4 7 8 8 7 8 11 14 15 15 13 12 16 18 18 17
9 7 5 6 9 3 6 6 5 4 2 4 5 7 12 15 15 19 20 19 19 18 18 15 11 7 4 4 7 8 9 8 8 10 12 11 12 12 14 16 18 18 19 22

GFSCGP_850_spd_102.txt.gz
Wind_Speed
1 2 5 9 6 5 6 5 9 9 7 7 11 10 8 16 15 18 24 21 28 31 41 47 43 47 45 44 46 47 42 37 39 42 40 38 32 26 22 18 15 16 16 16
5 3 7 7 8 6 7 7 11 8 5 7 9 16 7 7 11 17 22 20 24 28 31 35 42 46 48 51 49 48 44 40 44 44 39 33 28 22 18 16 17 18 17 17
3 5 7 3 5 7 5 7 6 11 5 5 5 15 5 6 12 16 22 20 21 31 23 31 44 48 50 54 52 53 48 35 47 40 34 31 27 20 18 19 21 21 17 17
5 3 4 4 5 4 8 6 12 14 7 6 2 11 4 6 9 5 14 20 16 25 24 31 46 53 50 53 54 53 53 44 42 34 31 27 27 26 19 20 25 22 18 17
7 4 3 3 5 3 10 12 8 12 13 4 5 3 6 4 5 7 9 20 21 24 29 36 45 53 35 31 42 53 47 41 38 29 26 25 23 17 20 22 26 23 20 17
6 6 2 3 7 8 13 6 13 3 1 3 7 4 5 4 8 11 16 21 18 16 33 33 40 37 36 42 48 48 36 36 26 27 25 25 16 8 29 27 28 24 21 18
7 6 6 3 8 5 5 6 4 5 4 3 11 5 5 7 10 7 12 17 6 7 20 30 31 34 39 43 47 41 35 26 28 29 29 23 26 19 27 26 24 24 23 21
4 9 2 4 4 5 4 3 1 3 5 5 5 3 5 13 12 13 19 17 16 15 12 17 22 27 31 35 37 35 30 40 36 27 20 21 26 20 18 17 18 20 20 20
4 6 6 5 5 1 3 4 2 1 3 4 2 2 3 4 9 13 19 25 23 21 23 20 16 19 19 20 22 26 23 21 17 15 22 20 17 17 16 15 14 18 18 18
2 6 3 8 6 5 1 6 1 2 5 5 6 4 6 4 5 7 5 14 18 13 16 15 14 15 13 12 12 13 15 15 13 14 13 17 17 17 17 15 18 19 19 21
1 2 8 4 3 5 3 3 1 4 1 3 4 4 6 4 0 1 7 8 8 11 16 13 11 10 9 12 11 14 11 8 16 16 15 16 18 16 15 17 16 18 19 18
1 2 5 7 8 7 4 3 3 3 6 0 1 4 5 5 6 9 12 17 16 19 22 19 16 14 15 15 14 11 10 12 15 16 15 16 16 15 14 14 14 14 14 13
1 1 5 10 6 6 4 6 3 3 3 3 2 3 3 7 8 9 14 14 13 15 15 15 15 16 17 17 18 16 15 15 16 15 15 14 12 10 9 8 8 8 8 9
2 2 6 5 9 3 7 13 10 3 2 2 3 3 4 4 3 6 9 9 11 12 13 15 16 16 16 16 17 17 17 16 15 13 11 10 8 7 6 5 6 7 8 9
3 3 4 8 15 10 13 11 5 4 3 3 3 1 5 4 6 8 9 11 11 13 15 15 18 19 18 18 17 16 15 12 10 9 7 7 6 5 5 7 8 9 9 10
5 4 5 6 3 4 3 3 3 3 3 3 3 3 4 7 10 11 15 14 13 14 15 16 16 15 14 12 12 12 11 9 6 6 6 5 4 5 6 6 7 9 10 11
2 2 3 5 6 8 2 3 1 2 1 2 2 2 2 5 7 5 10 16 18 18 18 18 16 12 12 11 10 10 9 7 4 3 1 2 3 5 6 8 9 10 11 12
3 1 2 4 6 1 5 1 4 5 1 1 2 2 5 7 9 5 12 16 18 19 19 17 15 15 11 8 7 8 6 4 2 2 3 4 6 8 10 11 13 14 14 14
10 3 1 0 2 5 3 3 4 3 2 2 4 3 6 11 3 5 6 18 19 18 17 16 15 12 10 7 7 6 6 4 4 3 4 6 7 10 12 14 15 13 15 17
5 2 3 1 0 4 4 2 1 3 4 5 7 8 9 5 2 4 5 19 19 18 17 17 15 12 10 12 9 6 4 3 3 3 6 9 13 14 14 14 15 16 19 19
3 2 5 3 3 7 6 3 4 2 5 6 8 9 10 5 7 11 14 18 19 18 18 16 13 11 9 8 7 5 2 2 4 6 11 11 10 10 12 13 17 18 19 20
6 6 4 3 2 6 5 3 5 4 6 6 6 6 7 7 11 17 17 19 19 19 17 13 11 10 9 7 5 3 4 5 7 10 10 8 9 10 12 16 18 20 19 19
3 5 3 8 5 4 6 7 6 8 8 7 7 6 7 13 17 18 19 19 18 16 15 11 8 10 9 6 4 5 6 7 9 9 9 9 11 13 15 18 21 18 16 18
3 2 3 2 3 4 9 8 8 9 9 7 7 7 10 12 17 19 19 20 19 17 15 12 11 10 8 5 4 5 6 8 10 10 11 12 14 17 19 18 15 16 18 19
6 1 2 6 8 15 10 13 10 11 7 5 5 7 8 13 18 19 22 21 20 18 15 12 11 9 6 4 4 5 7 9 9 10 11 14 15 14 13 13 15 16 18 17
13 11 7 10 12 7 5 4 13 12 8 6 6 7 11 13 15 19 21 21 21 19 16 15 12 9 7 5 6 8 10 11 10 10 10 10 10 13 15 15 15 15 18 20

GFSCGP_850_spd_105.txt.gz
Wind_Speed
4 4 4 9 5 5 6 4 6 9 9 5 8 8 9 18 19 16 19 17 16 21 32 40 48 47 41 40 45 43 39 35 37 41 42 38 33 30 25 22 19 15 16 15
5 3 5 7 6 5 6 7 12 10 6 4 9 11 8 7 9 20 17 18 18 19 21 32 43 45 47 47 49 44 46 46 42 49 44 41 37 35 30 26 20 16 17 16
3 6 7 5 7 6 6 7 6 10 10 4 7 7 6 4 9 16 13 13 11 16 21 25 38 44 44 49 51 53 53 55 51 50 48 44 40 37 31 26 23 19 18 17
4 5 5 6 5 2 6 4 9 13 10 6 8 5 5 7 7 5 14 19 18 15 16 22 33 41 49 48 49 48 51 56 50 50 49 47 43 39 32 27 22 19 21 17
7 5 7 4 5 2 9 11 8 7 7 4 6 2 7 7 7 14 13 25 22 14 13 20 31 39 44 44 48 48 50 47 48 49 49 45 42 31 26 21 19 19 20 18
6 6 3 3 10 4 10 4 4 4 3 2 4 6 5 4 8 14 14 21 14 6 11 18 25 32 41 42 30 36 50 41 45 46 47 39 33 25 15 13 14 24 24 19
8 6 6 2 7 3 9 6 4 6 5 6 6 2 6 8 8 9 10 14 12 2 12 15 24 33 38 36 40 38 41 44 47 41 30 23 28 23 9 13 22 26 25 25
4 9 5 5 2 5 4 3 2 3 5 5 7 7 5 5 7 13 17 14 19 16 9 13 18 27 32 38 39 36 40 37 41 26 13 7 3 15 24 23 21 22 20 19
5 6 5 4 4 2 5 5 2 3 4 3 3 2 5 9 10 14 18 26 27 25 14 6 10 15 16 23 23 23 20 23 25 17 15 11 18 25 18 8 12 17 17 20
1 6 3 7 2 4 2 6 2 3 5 5 6 3 5 13 13 12 12 17 21 21 22 21 17 9 7 15 16 10 9 8 11 8 25 10 13 10 11 11 14 16 18 19
1 2 7 4 2 2 5 4 3 4 1 2 5 4 4 6 9 7 10 14 18 21 20 18 16 17 17 17 18 18 12 9 11 11 10 11 12 13 12 13 13 14 17 17
1 3 5 7 6 3 3 2 3 3 3 2 1 5 4 5 6 9 9 12 17 20 22 17 16 19 17 18 18 17 15 15 13 13 13 12 12 11 12 13 13 14 16 17
2 1 5 9 6 5 4 4 2 1 2 3 2 5 3 6 9 11 11 13 17 18 16 13 15 18 18 17 17 18 17 16 16 15 16 18 16 14 13 12 12 12 12 11
1 2 5 5 7 0 7 13 4 1 1 1 3 5 8 5 4 6 8 11 13 13 13 14 17 19 19 19 18 17 17 15 15 14 13 12 11 9 8 8 7 7 7 8
3 3 3 7 13 6 8 10 8 2 3 2 2 2 5 6 1 3 7 9 13 14 15 17 18 18 17 18 18 17 16 14 11 9 8 7 6 4 3 3 5 6 8 9
4 3 3 6 3 2 6 7 5 2 2 0 1 1 2 3 1 4 4 7 10 12 14 16 16 16 15 14 14 13 13 10 6 6 5 4 2 1 3 4 6 7 9 10
1 1 2 5 5 7 3 4 2 1 1 2 3 2 4 0 1 2 4 7 10 11 13 14 13 12 12 11 10 10 9 8 6 5 4 2 1 2 4 5 7 9 10 11
4 3 2 4 7 2 4 4 3 4 3 3 2 2 5 6 4 6 8 8 9 11 13 13 12 11 10 8 7 7 6 4 2 1 1 2 3 6 8 10 11 12 12 12
6 4 0 0 2 6 2 3 3 3 4 6 4 4 4 8 1 4 10 14 12 12 12 11 10 7 6 6 5 4 3 1 1 2 3 4 6 9 11 13 13 12 13 16
4 4 3 1 1 4 4 1 2 2 4 7 9 8 9 7 1 4 6 17 16 15 14 14 12 9 7 7 6 3 2 1 1 2 4 8 11 13 12 12 12 14 18 19
3 2 5 3 3 8 7 4 4 1 6 9 11 11 14 6 8 4 7 17 18 17 16 15 13 11 10 8 5 3 2 1 3 6 10 12 11 11 12 13 15 18 20 23
7 6 4 2 2 7 8 5 6 5 4 7 8 9 11 11 8 10 12 17 19 19 18 15 13 11 9 7 4 2 3 5 7 10 11 11 11 11 12 15 17 20 23 21
2 6 5 8 6 6 7 9 7 6 6 9 9 8 9 9 12 15 17 18 19 18 17 14 9 9 9 6 3 3 6 7 9 11 11 11 12 13 16 19 21 20 18 20
3 5 3 1 6 12 15 12 12 11 11 10 9 8 10 9 14 17 19 20 21 19 17 14 11 10 8 6 3 5 6 8 11 12 12 12 15 17 18 17 17 18 20 21
7 5 5 7 8 12 18 15 15 13 11 11 9 9 9 12 14 17 20 21 21 20 17 14 11 10 7 5 4 6 8 9 11 11 12 13 14 14 15 16 17 18 19 20
14 8 7 11 14 10 14 15 16 19 17 12 10 9 11 13 14 18 20 20 22 22 19 16 13 10 7 5 5 7 9 10 10 9 10 11 12 14 15 17 16 15 18 21

GFSCGP_850_spd_111.txt.gz
Wind_Speed
6 4 2 4 3 5 6 5 12 15 13 6 10 15 14 21 17 15 16 20 17 15 15 13 21 27 30 35 33 32 31 30 34 35 30 29 30 29 28 27 24 23 22 23
4 1 2 4 5 4 7 10 9 10 4 4 9 16 10 12 13 10 8 11 15 15 13 13 13 22 30 34 33 31 30 30 30 28 28 30 30 30 29 28 28 26 23 21
3 3 3 2 6 7 7 4 7 7 7 2 12 5 8 21 12 12 19 17 14 15 15 14 11 19 24 35 36 31 28 31 29 29 27 28 30 31 32 32 32 31 28 24
4 3 4 4 4 2 5 2 7 4 2 5 10 3 5 20 20 22 25 21 19 15 16 17 14 16 22 26 33 35 32 31 30 29 22 30 37 35 35 38 37 34 36 32
4 5 4 3 4 2 7 10 1 2 1 1 13 2 2 16 20 25 29 24 19 15 16 17 16 17 20 25 27 34 35 31 34 34 25 34 36 38 35 35 36 38 37 30
4 5 2 3 4 0 11 3 3 3 1 3 9 3 5 11 17 21 24 20 18 14 10 12 13 16 19 23 26 30 33 32 35 35 37 32 33 33 23 27 28 15 13 28
7 4 4 3 5 4 10 6 4 4 6 3 5 3 4 15 21 15 17 19 15 13 12 5 5 7 10 14 18 21 26 35 35 39 31 23 24 10 12 8 11 19 21 34
4 6 6 6 2 3 4 3 3 1 3 6 7 7 6 11 19 23 20 19 19 18 16 15 11 9 7 9 12 17 21 24 24 22 18 15 6 5 10 16 23 19 20 24
3 5 5 0 3 2 2 4 2 3 1 3 3 1 4 17 20 26 26 29 26 24 18 18 16 13 13 11 9 10 11 10 7 13 14 16 2 9 12 14 18 14 16 18
2 4 2 5 1 5 4 3 1 3 5 5 5 3 9 13 16 16 17 21 26 24 23 20 22 21 18 15 15 18 13 14 18 17 16 11 7 6 12 8 15 16 18 22
3 2 5 2 4 2 3 3 4 1 1 1 5 3 5 1 9 11 15 18 23 25 26 30 27 27 25 26 22 20 15 18 20 10 12 10 8 9 11 7 7 9 9 9
1 3 4 4 5 3 1 2 3 2 2 0 1 3 2 2 5 7 9 13 17 20 23 26 24 25 27 27 27 26 21 18 11 14 15 14 15 13 9 10 9 8 7 8
3 1 3 5 2 2 2 1 2 2 1 2 1 2 1 2 3 7 7 9 13 16 21 23 24 26 28 27 27 25 22 20 17 16 16 16 14 12 11 10 10 9 8 8
4 3 4 4 4 1 5 4 1 2 1 1 4 4 2 3 2 3 6 8 12 15 18 24 25 27 26 26 26 25 23 22 21 20 19 18 17 14 12 11 8 6 5 3
3 3 3 6 10 4 6 14 6 6 4 3 2 3 2 2 2 2 5 8 12 14 18 21 22 23 23 23 24 23 22 19 16 15 14 14 12 11 9 7 4 2 1 3
2 1 2 4 1 4 6 8 6 5 4 5 4 4 3 2 3 6 6 8 11 13 17 18 19 20 20 20 21 19 18 16 11 11 12 10 7 5 3 2 2 3 5 7
1 1 3 4 4 9 4 4 5 3 4 4 4 4 5 3 5 6 7 9 12 14 16 17 18 18 18 17 16 15 14 13 11 10 10 8 6 4 3 3 5 6 7 8
4 2 1 4 6 2 3 1 3 5 5 6 2 4 6 5 7 7 8 10 12 14 14 15 16 16 15 14 13 13 13 11 9 10 9 7 4 2 3 4 4 5 6 7
4 4 1 1 2 7 3 3 5 5 5 7 6 4 6 6 3 5 11 11 11 14 14 14 14 14 14 13 12 11 11 9 8 7 5 2 2 4 4 4 5 7 8 11
5 4 2 2 1 4 4 1 3 3 4 6 10 8 9 9 2 2 13 15 14 15 16 16 15 12 11 12 11 8 6 6 4 2 1 3 3 4 4 5 6 8 11 13
3 1 4 2 3 8 7 2 3 2 4 7 14 12 15 5 6 6 10 14 17 16 17 16 14 13 12 12 10 6 7 5 2 1 2 3 3 3 4 6 9 11 13 14
7 7 4 2 3 6 8 5 5 4 1 6 12 13 17 16 7 6 6 13 21 20 21 19 17 16 14 12 9 6 5 3 0 2 3 3 4 5 7 9 11 11 11 12
4 6 6 9 6 5 14 8 14 6 4 5 10 11 13 14 15 11 10 15 21 21 21 20 17 16 15 12 9 5 3 0 2 3 4 4 5 7 8 8 10 10 12 13
4 6 3 2 5 16 26 21 21 20 20 17 13 12 14 14 12 12 13 18 23 23 23 21 20 16 15 14 10 6 2 2 3 4 4 4 5 6 8 10 10 12 13 15
5 9 6 6 11 13 20 24 22 17 14 14 16 16 15 15 13 13 16 20 23 24 25 22 19 16 15 13 10 5 2 2 3 2 3 3 5 7 8 9 11 13 14 17
11 7 6 7 12 10 13 13 12 14 18 19 19 18 18 17 15 14 17 20 24 26 26 24 20 17 16 13 9 4 2 2 1 2 2 3 5 7 8 9 9 11 13 14

GFSCGP_850_spd_114.txt.gz
Wind_Speed
3 3 6 8 6 10 11 12 13 11 8 10 9 14 6 14 12 11 10 11 11 11 8 5 9 17 21 25 26 30 30 28 27 31 33 30 31 26 22 21 22 22 20 21
3 3 6 9 7 9 11 11 12 4 5 4 15 4 4 11 11 12 16 13 12 12 9 6 4 12 19 21 27 28 30 30 29 33 33 32 31 27 22 23 24 23 21 21
4 4 7 8 11 13 9 10 13 10 10 3 14 6 4 17 16 19 16 14 12 12 13 8 6 9 17 22 26 27 28 30 30 29 29 31 27 28 26 25 26 26 25 24
3 2 6 9 10 10 9 14 10 5 5 7 11 4 5 20 20 20 22 21 18 14 13 12 9 10 16 22 25 27 29 30 31 33 34 28 27 31 29 28 30 32 29 30
5 5 7 8 11 9 10 13 4 2 2 5 15 4 10 21 20 26 27 27 20 16 15 13 11 12 12 16 20 21 25 29 30 30 30 22 26 23 25 25 30 34 34 38
4 3 2 5 15 5 16 5 3 2 2 3 7 5 10 13 18 21 27 22 19 16 11 8 7 9 8 13 18 20 24 22 26 29 27 27 21 27 28 28 36 36 39 38
6 2 1 4 10 2 16 11 2 1 3 5 8 6 5 15 21 16 16 20 18 15 12 7 5 8 11 13 16 16 20 27 27 26 27 23 15 2 5 9 13 21 17 18
5 3 6 9 4 7 8 6 3 3 6 5 9 10 6 14 16 21 22 20 20 19 14 17 13 15 14 14 14 16 20 20 16 19 21 8 8 13 11 6 11 24 17 20
5 2 2 2 3 4 5 5 2 1 2 4 3 12 4 15 16 23 26 27 27 22 19 22 22 18 17 14 12 16 15 12 8 7 10 17 19 10 14 16 11 13 12 20
2 5 2 2 3 2 5 1 1 2 5 5 5 11 7 16 16 16 21 26 25 21 21 22 25 26 25 22 19 23 26 22 23 22 21 14 12 13 13 13 13 9 9 9
1 3 1 3 2 4 1 2 3 1 3 4 6 6 5 8 11 13 16 18 22 22 25 25 24 28 26 24 24 27 27 22 21 21 20 11 10 5 9 9 11 12 6 8
2 3 5 3 3 3 2 2 4 4 2 1 3 3 5 5 7 9 11 13 15 19 20 23 28 27 25 25 22 20 21 13 16 18 12 9 9 10 11 12 12 11 10 11
3 2 5 4 5 3 3 1 1 2 2 2 3 4 3 3 4 6 8 10 12 14 18 22 25 26 26 26 25 24 19 18 18 17 17 16 15 14 13 13 11 10 9 9
4 3 6 7 7 4 8 5 8 5 4 3 3 5 2 3 3 5 5 7 9 13 15 18 20 25 25 25 24 24 23 21 20 20 19 19 18 17 16 15 13 11 9 7
3 4 4 10 15 14 15 15 11 11 9 5 3 4 2 3 4 6 5 5 9 12 14 14 17 19 24 27 27 26 24 22 19 19 18 18 16 14 12 11 9 7 5 4
2 1 3 6 4 4 9 12 11 11 10 12 10 8 3 6 6 7 8 8 9 9 11 14 16 19 21 22 21 20 19 18 15 15 15 14 11 10 9 7 5 3 3 4
3 2 3 3 4 13 9 4 10 6 7 5 4 3 10 8 9 10 10 10 12 12 12 14 15 16 18 18 17 16 14 13 10 9 9 8 6 4 3 4 5 6 6 7
4 3 2 5 9 3 3 3 1 7 7 10 3 6 9 8 8 10 12 14 14 15 15 15 16 17 16 14 13 13 12 9 8 7 6 4 2 4 5 5 6 6 7 7
6 5 3 3 3 10 1 2 4 4 5 11 10 7 9 8 7 9 13 15 16 16 15 15 15 15 14 13 13 11 9 7 6 4 2 2 4 4 5 5 5 6 8 9
5 6 4 2 3 3 2 1 2 1 7 4 11 11 12 13 7 5 19 17 17 17 18 18 17 15 14 13 12 9 8 7 5 2 1 3 3 3 3 4 5 7 9 11
6 5 9 7 5 7 6 4 3 3 2 2 11 11 14 9 1 8 17 18 18 21 22 20 18 16 15 14 12 9 8 7 4 2 3 3 3 3 4 5 7 10 11 12
9 8 5 5 5 6 13 7 5 2 2 3 8 9 15 12 10 10 15 19 23 24 25 23 21 20 18 16 13 10 10 7 5 4 3 3 3 4 5 7 8 9 10 11
6 5 4 9 5 1 18 1 11 7 3 4 6 8 12 13 15 13 13 17 25 27 27 25 23 22 20 19 15 13 10 7 5 4 3 3 3 3 4 6 7 7 9 8
7 9 3 3 7 15 11 15 15 14 14 9 10 8 13 17 16 17 16 18 25 28 29 28 25 24 22 21 17 14 10 7 5 4 4 3 2 3 4 5 6 7 7 8
3 13 9 11 12 8 16 19 18 18 21 20 18 18 20 18 19 18 18 20 25 29 30 29 27 25 22 21 18 13 10 6 6 6 5 3 2 2 3 5 6 7 8 10
12 9 8 9 7 8 12 8 11 11 12 17 19 19 18 20 21 20 20 21 25 30 31 30 28 25 22 21 18 14 9 7 7 6 6 4 2 1 2 3 6 7 9 10

GFSCGP_850_spd_120.txt.gz
Wind_Speed
6 4 3 8 6 9 11 12 11 10 5 4 5 4 5 18 22 21 22 25 27 26 23 13 11 10 9 14 25 26 30 34 31 28 31 29 25 27 26 20 18 20 20 20
4 6 7 5 8 10 10 13 8 8 7 5 6 9 14 11 14 14 17 21 26 29 28 20 14 12 17 21 21 26 34 28 17 18 32 31 25 22 25 20 16 17 19 22
4 4 3 7 9 11 11 9 11 12 11 11 6 6 5 7 14 16 16 20 21 24 27 22 19 9 10 14 20 21 28 28 34 32 39 36 28 26 24 22 22 22 22 23
6 3 3 7 7 10 8 11 10 10 5 4 5 2 4 5 8 14 18 15 18 23 22 19 17 16 9 11 14 14 17 12 19 27 41 34 33 31 30 27 25 24 21 22
2 3 5 7 7 8 6 11 13 6 7 5 7 3 5 12 12 15 16 17 17 14 16 20 17 11 10 6 10 12 13 17 12 22 45 34 36 32 26 22 20 18 21 25
7 3 1 4 11 10 9 14 4 4 3 2 6 2 4 5 4 10 16 17 17 16 12 14 12 5 11 6 7 10 13 22 13 24 13 32 31 24 18 12 13 18 24 28
7 6 4 2 8 3 9 10 3 3 3 1 6 3 1 5 1 4 13 17 19 21 15 15 3 6 12 11 9 8 10 18 21 16 12 3 16 18 15 12 16 21 19 26
3 3 1 5 2 4 8 5 2 2 3 4 6 2 2 1 7 12 14 16 21 20 17 16 15 16 14 11 7 8 18 15 15 16 19 21 20 13 14 8 11 9 10 14
4 1 4 2 2 4 5 4 2 1 5 2 4 4 4 9 8 13 16 20 24 20 18 19 19 18 15 15 12 11 19 19 18 17 20 22 15 10 6 7 7 6 8 6
2 4 2 4 3 4 2 1 1 2 3 5 2 5 4 8 9 11 15 18 22 20 19 20 24 26 23 19 18 16 20 29 26 23 20 17 13 13 13 14 14 11 6 2
3 3 4 2 3 4 2 1 1 2 1 2 4 3 6 7 7 9 12 18 21 20 20 19 23 26 26 24 22 24 25 24 23 21 18 17 14 11 9 7 7 3 0 1
4 4 4 4 6 4 3 3 2 1 4 3 4 2 7 8 7 14 13 12 14 18 19 20 24 26 27 26 23 21 23 21 18 16 15 14 11 12 13 12 11 13 10 9
2 4 4 3 1 2 4 6 1 3 3 6 1 2 6 11 9 13 13 12 14 13 15 17 19 21 25 24 22 21 18 17 17 13 16 17 18 16 18 16 15 15 13 15
2 3 6 5 4 1 4 4 4 4 1 5 2 3 7 7 8 10 12 11 15 14 15 16 17 18 20 21 20 20 20 19 18 18 20 20 19 19 19 17 15 15 13 13
2 4 7 9 8 7 7 7 7 8 8 3 4 5 3 8 9 12 11 13 12 12 13 13 15 16 16 19 19 20 20 18 17 18 18 18 16 15 14 12 12 11 9 8
5 3 4 10 13 7 7 6 6 7 9 7 7 8 8 16 16 16 13 12 12 13 14 14 14 13 15 17 19 18 18 17 15 15 14 13 11 10 9 8 8 7 5 4
6 3 2 4 3 6 8 11 12 9 6 8 7 4 7 7 11 14 17 14 14 14 15 15 13 12 14 14 14 13 12 11 10 10 10 9 8 7 6 7 7 6 5 5
5 3 1 4 7 4 4 4 3 4 7 8 4 6 10 12 12 13 16 18 17 17 16 15 15 15 12 12 12 12 11 10 10 9 7 6 5 6 6 5 5 4 4 2
5 4 2 2 4 8 8 4 4 5 5 10 7 9 9 11 12 11 17 18 21 20 20 18 15 15 15 14 13 13 12 10 9 8 6 4 3 3 3 3 3 3 3 3
5 4 2 3 3 4 4 5 4 3 4 4 14 11 13 15 5 5 21 21 22 21 22 21 19 17 15 14 13 13 12 11 10 7 5 4 3 2 2 2 2 1 2 2
4 4 7 5 4 6 6 11 6 2 5 5 7 19 22 8 5 8 29 25 23 23 23 22 21 19 18 17 15 13 12 11 10 6 4 3 3 3 2 2 2 2 3 2
8 8 5 4 5 8 21 9 6 6 7 10 10 16 21 18 11 16 22 25 25 26 26 25 23 22 20 18 17 15 15 14 10 7 5 5 3 3 2 2 2 3 3 3
5 7 6 8 6 6 30 4 16 12 12 12 14 14 17 20 16 18 22 25 26 28 28 27 25 24 22 21 19 18 19 14 11 8 6 6 5 4 3 3 2 2 3 4
5 6 3 4 5 10 23 14 17 15 13 12 13 14 17 19 18 17 22 24 27 29 30 28 27 28 26 23 21 20 18 15 11 9 8 7 6 5 4 3 3 2 3 5
6 12 8 3 3 8 18 23 23 18 16 15 13 16 17 17 18 20 21 25 28 30 30 29 30 31 28 25 25 24 21 16 14 11 10 9 7 7 5 4 3 5 4 6
9 8 7 7 13 15 12 19 25 24 23 21 20 21 22 21 22 21 25 24 27 30 32 32 32 33 30 27 28 27 22 18 15 13 11 11 9 8 6 5 5 4 6 7

GFSCGP_850_spd_123.txt.gz
Wind_Speed
6 3 1 1 1 6 5 4 6 5 2 2 2 5 6 12 20 20 20 22 27 29 26 19 16 15 8 9 19 23 21 27 29 25 24 27 24 21 27 28 24 22 23 23
5 2 4 3 5 4 4 4 5 6 8 2 5 4 5 8 6 13 12 20 25 31 30 22 15 16 9 2 12 17 18 19 26 19 26 28 25 24 28 27 24 24 22 23
3 2 2 2 4 5 3 2 3 4 8 4 4 1 2 2 6 13 15 15 21 25 29 24 18 11 7 6 6 10 14 17 20 18 27 13 20 24 28 23 22 18 19 22
3 3 0 4 2 3 3 3 2 6 5 2 2 4 3 5 5 4 12 16 20 22 22 19 18 6 3 7 8 8 10 15 16 22 23 29 24 27 28 26 21 18 19 24
5 2 2 2 2 2 7 7 8 4 3 3 6 4 4 5 8 11 16 20 20 21 19 19 16 11 4 1 7 6 7 14 14 16 3 20 36 21 29 26 22 22 24 24
6 2 3 2 5 3 8 5 6 4 2 2 5 4 4 4 6 7 16 19 20 22 18 16 7 7 9 6 9 7 13 13 12 18 6 10 14 24 20 20 20 25 27 27
1 3 2 2 3 6 9 6 4 5 4 4 3 4 5 5 4 4 13 17 21 21 20 15 8 15 11 11 10 9 11 14 14 12 20 16 9 13 19 16 21 29 27 28
3 3 5 1 2 2 3 4 4 4 0 5 6 3 4 4 5 8 13 17 19 21 21 18 13 13 13 13 9 12 12 15 11 13 14 13 23 28 26 25 21 16 14 15
2 2 0 2 1 3 3 3 4 4 2 2 2 3 1 4 3 11 15 18 21 18 17 19 16 16 15 14 13 18 16 16 11 17 15 17 20 23 22 17 11 10 8 9
2 0 4 2 0 2 3 5 2 2 2 3 3 2 3 4 5 5 9 15 18 17 18 20 20 21 18 17 18 18 15 18 17 20 22 20 17 13 15 15 16 13 13 7
2 4 4 4 3 4 1 1 1 3 5 3 2 5 4 3 3 3 8 13 16 15 16 19 21 22 24 23 22 22 23 23 21 19 16 18 17 16 14 13 11 9 7 6
2 4 2 2 2 2 2 2 3 4 3 2 3 4 5 7 7 3 12 12 15 16 16 20 23 26 26 26 24 22 21 20 18 19 18 16 13 10 9 10 9 7 8 9
4 2 1 5 4 3 1 3 3 2 2 4 3 4 5 11 10 5 9 11 12 16 16 19 21 21 20 23 23 22 20 18 16 13 14 16 16 15 16 16 16 17 18 19
4 2 5 6 5 3 3 4 5 6 2 3 5 5 6 7 9 11 6 10 14 14 15 15 17 21 21 20 20 17 19 19 20 19 19 21 20 18 18 17 16 15 15 15
4 4 4 5 7 4 5 6 6 7 7 4 6 2 8 11 12 19 15 12 12 13 13 15 17 16 19 20 21 22 21 20 19 21 20 20 18 16 14 13 13 13 11 11
3 3 1 4 6 7 7 9 9 8 6 7 7 8 6 19 21 21 21 18 16 15 14 15 15 16 17 19 20 20 21 21 17 16 16 15 13 12 11 10 10 8 8 7
7 4 2 4 5 4 6 8 10 6 5 9 7 8 7 8 16 23 25 22 21 21 19 17 17 19 20 19 18 19 18 16 14 14 14 12 10 9 8 7 7 6 6 4
6 5 3 3 3 2 6 2 6 9 9 8 4 10 15 19 23 26 25 24 22 23 22 20 19 18 18 18 16 15 14 14 13 13 12 9 7 6 6 5 6 6 5 3
3 4 2 3 2 5 2 4 5 5 7 8 9 9 17 18 15 13 27 22 22 23 23 21 18 18 18 18 16 15 14 12 10 9 7 5 4 5 5 6 5 4 3 1
4 5 4 3 4 7 5 4 8 5 5 6 17 11 13 20 5 6 30 25 23 21 23 23 21 19 19 19 17 16 15 14 12 10 7 6 4 4 5 5 5 4 3 2
4 1 6 3 4 7 7 9 9 4 6 8 23 27 26 10 20 12 27 28 26 24 25 24 23 22 20 20 19 18 16 15 12 10 7 6 4 3 3 3 2 2 2 2
8 8 5 3 3 8 15 8 8 7 9 12 13 28 34 30 18 12 22 32 30 29 27 26 25 23 22 20 20 19 18 15 12 10 7 5 4 4 4 3 2 2 2 2
5 8 8 10 8 6 34 7 20 17 17 15 17 23 27 26 20 15 23 32 31 31 29 27 26 24 24 22 21 21 19 16 13 11 8 6 5 5 4 3 2 2 1 1
4 11 4 5 7 9 33 14 21 20 18 18 19 20 22 25 23 23 26 29 31 32 31 29 28 28 28 25 24 22 20 18 15 13 10 7 7 6 5 4 3 2 2 2
6 13 7 3 5 7 22 29 25 22 18 19 19 21 20 22 25 25 26 30 32 33 33 31 31 31 30 28 27 26 23 20 18 15 11 9 8 7 7 5 4 3 3 4
8 8 8 8 14 13 13 33 32 27 27 24 23 22 21 22 24 24 24 26 31 33 34 35 34 31 31 31 30 29 26 22 19 17 14 10 10 9 8 7 6 5 5 5

GFSCGP_850_spd_126.txt.gz
Wind_Speed
1 3 3 6 6 4 2 3 4 4 2 2 2 3 2 4 13 19 22 24 25 29 32 25 16 13 9 5 12 18 17 18 18 19 26 27 30 32 26 30 33 24 25 19
3 5 8 7 0 1 1 2 4 6 5 4 4 2 3 4 2 12 18 26 27 27 31 28 11 9 8 6 7 15 15 15 16 21 25 30 26 25 28 32 32 35 26 23
5 4 5 1 1 3 2 4 3 5 6 3 5 2 4 4 4 10 17 25 26 23 26 26 10 7 10 7 7 7 9 10 11 17 23 24 25 23 26 32 29 23 20 21
4 1 3 2 2 3 3 7 5 3 3 2 3 4 3 5 8 4 14 22 22 25 22 19 10 4 8 12 9 7 8 12 16 18 22 24 25 4 24 26 26 27 24 21
5 4 2 2 4 3 8 3 6 3 3 2 4 3 5 5 7 9 19 22 25 23 22 19 7 3 6 10 11 7 7 11 14 14 17 23 28 17 10 22 22 20 18 22
5 1 4 4 2 4 5 2 7 5 3 2 4 3 4 4 4 6 17 21 23 25 24 19 3 5 11 7 8 5 8 11 9 10 9 10 21 26 31 29 25 25 26 24
2 3 2 2 2 3 8 5 2 4 4 4 1 2 6 2 4 5 12 17 21 21 24 19 14 12 12 11 7 6 11 9 8 6 4 9 17 24 27 24 20 14 16 20
4 4 5 2 3 2 1 5 4 5 1 4 4 2 5 4 8 7 8 12 16 19 21 17 15 11 12 10 9 10 8 10 9 12 14 12 18 24 18 18 16 18 23 27
4 3 1 2 2 4 1 1 3 5 3 3 3 2 3 4 3 5 8 11 14 15 14 13 15 11 11 9 10 11 11 10 7 9 10 7 16 19 17 17 13 11 11 11
5 1 4 3 2 1 2 5 2 3 2 2 4 3 4 4 4 3 5 8 9 11 12 15 13 11 9 10 11 10 9 7 8 11 10 12 14 14 15 12 10 6 10 11
3 3 2 3 4 6 1 1 1 3 4 4 1 5 5 6 5 6 1 4 6 9 10 14 13 14 12 13 13 12 11 11 14 14 16 16 16 15 15 15 15 15 12 10
3 4 3 5 2 2 4 5 5 4 3 1 3 5 3 7 10 13 8 4 7 10 13 15 18 16 18 20 20 20 19 19 16 17 16 18 18 16 15 13 12 11 10 10
6 2 1 5 4 3 3 4 4 4 2 4 5 5 3 5 10 13 14 10 11 12 14 16 18 18 17 18 17 15 15 17 17 13 16 16 15 15 15 13 12 12 13 15
6 3 5 6 4 4 4 5 5 6 3 3 5 3 5 7 7 13 15 14 13 14 14 13 14 18 18 16 15 15 14 14 14 15 17 19 18 17 16 16 15 15 15 15
5 5 5 6 7 3 6 6 8 8 6 6 4 7 7 13 12 20 20 19 18 16 16 17 17 17 17 15 14 13 14 16 16 17 18 19 18 16 15 14 14 14 14 14
2 2 3 4 4 8 6 9 10 9 6 7 5 9 7 17 21 18 24 25 22 21 19 18 18 18 19 18 18 17 17 18 17 16 15 14 13 12 12 11 11 10 11 11
7 5 3 4 3 3 6 9 10 6 6 10 9 10 6 4 16 25 28 28 26 25 23 22 20 17 17 17 17 19 18 16 14 12 13 13 11 11 12 9 8 9 9 8
7 6 3 3 2 2 5 1 6 11 6 8 5 6 14 18 31 28 28 30 27 26 25 24 23 22 21 20 18 16 16 16 15 13 13 12 9 6 6 8 7 7 8 7
4 5 3 4 3 6 4 5 6 7 7 11 10 7 16 16 17 17 28 26 26 28 26 26 25 25 25 23 22 20 19 16 14 12 10 7 7 8 8 8 7 6 3 3
5 5 4 3 4 7 5 3 7 5 5 8 18 11 13 18 5 9 31 29 26 25 26 27 26 26 26 25 23 22 20 18 16 13 10 8 7 6 6 5 4 3 3 3
4 2 6 3 4 8 7 7 8 4 7 10 25 25 25 10 22 6 20 32 27 25 27 27 27 28 26 26 25 24 21 20 16 14 11 9 7 6 7 7 6 6 6 6
9 8 5 3 2 8 14 7 8 7 7 15 23 30 37 36 28 20 10 28 30 29 29 29 29 28 26 26 26 25 23 19 18 15 12 10 9 8 9 8 8 7 7 7
4 8 8 10 9 5 29 4 17 13 18 16 18 26 33 35 27 21 17 25 31 31 30 29 29 28 28 28 27 26 22 22 20 17 15 12 11 11 10 9 9 9 9 8
4 7 5 4 8 9 23 24 23 16 17 18 17 17 24 32 28 23 19 18 32 33 33 31 30 30 30 30 29 25 24 23 21 18 17 14 12 12 12 11 9 9 8 8
5 15 8 4 5 5 19 34 24 23 19 18 18 19 21 23 25 24 22 20 26 31 33 33 31 30 31 30 30 28 27 25 23 19 17 15 13 13 12 11 9 9 8 7
8 7 7 5 20 9 12 27 33 26 26 23 22 22 22 22 22 23 23 22 25 29 31 34 33 31 30 30 31 30 28 27 24 22 20 18 15 14 13 13 12 10 9 7

GFSCGP_850_spd_129.txt.gz
Wind_Speed
0 2 5 7 6 4 2 3 4 4 4 3 5 5 5 5 6 10 19 28 30 26 24 22 14 5 6 5 16 16 21 18 21 17 23 25 30 29 31 31 31 30 27 25
3 6 9 5 4 4 4 2 4 5 4 2 3 6 3 5 5 5 18 28 26 27 26 23 10 2 4 11 14 15 11 14 16 19 24 21 27 30 30 31 30 28 28 28
7 5 5 5 3 3 2 4 3 5 5 1 0 6 2 4 5 8 18 21 23 22 22 23 8 4 9 14 14 15 14 14 15 18 19 23 26 29 34 31 32 32 30 29
5 4 5 3 3 5 2 5 3 3 3 3 3 4 3 4 7 4 19 23 22 26 22 16 6 6 12 15 16 16 15 15 14 13 20 22 26 27 21 28 30 32 29 30
6 5 3 3 4 5 6 2 3 3 3 2 2 3 5 5 6 10 16 22 24 26 24 14 1 6 12 16 16 15 13 14 15 16 20 24 25 22 18 21 31 23 25 22
5 1 4 6 2 3 2 3 6 4 3 2 3 3 4 4 5 8 15 21 23 25 22 20 9 10 11 13 12 10 10 11 9 9 12 17 20 24 24 28 28 26 27 28
1 3 2 3 3 1 5 5 2 3 3 5 1 2 7 3 2 3 12 19 19 21 23 22 17 13 14 11 10 12 12 13 11 10 9 13 19 21 20 22 20 29 23 22
5 3 6 4 4 5 2 5 5 5 2 5 4 3 4 3 1 6 10 13 14 17 20 22 19 15 15 13 13 12 9 10 9 10 9 6 7 11 18 23 27 20 12 13
5 3 2 2 3 5 3 2 4 6 1 3 3 5 1 2 4 7 9 11 14 15 15 16 17 17 16 12 11 8 7 7 12 9 4 7 10 11 12 10 10 9 9 11
6 3 2 3 3 4 2 6 3 3 1 3 4 5 4 5 5 5 4 7 9 10 11 12 12 12 10 14 12 10 7 5 6 5 4 8 11 11 7 9 10 7 9 12
5 3 1 3 4 8 2 1 4 4 4 3 2 5 5 6 6 5 5 2 4 5 6 8 10 10 9 8 9 11 12 13 9 6 7 10 11 10 9 9 9 10 12 11
5 5 4 5 2 3 4 6 6 4 3 1 3 5 2 5 8 9 4 2 2 3 5 7 11 14 15 16 15 17 15 14 13 14 14 14 12 12 12 12 13 12 10 10
7 1 2 4 5 2 4 5 4 5 3 5 5 5 3 5 6 9 8 6 4 7 7 9 12 14 14 14 14 12 13 15 15 16 16 16 14 12 12 11 9 10 10 11
7 3 5 6 4 5 5 5 6 6 4 4 6 3 6 7 8 12 13 11 8 10 11 11 9 12 13 12 12 12 12 11 12 13 14 15 14 12 12 12 11 11 11 11
5 5 4 5 5 2 4 5 8 8 6 6 5 8 6 14 14 23 20 16 15 13 14 15 14 13 12 11 9 8 9 12 12 14 16 16 15 12 11 10 11 11 10 11
1 2 4 3 3 7 5 9 9 9 4 7 4 8 8 11 20 20 24 22 22 20 17 16 18 17 14 11 11 11 12 14 13 14 15 14 11 9 9 9 9 8 9 10
8 6 4 4 1 1 6 11 14 6 6 10 10 10 6 5 15 26 31 30 28 25 22 20 18 16 15 15 13 14 15 15 14 12 11 10 9 8 6 5 6 7 7 6
7 7 3 3 1 3 6 2 6 12 6 10 5 6 13 13 26 32 32 33 31 28 25 22 20 19 18 18 17 17 17 16 14 12 10 10 8 7 7 7 7 7 6 6
4 5 3 5 4 6 4 6 7 8 8 14 16 7 8 7 14 13 31 30 29 29 26 23 21 19 20 20 20 19 18 16 15 12 11 10 8 8 9 8 8 8 6 5
6 5 4 3 5 8 6 3 9 5 5 8 18 9 11 17 4 7 30 31 30 27 26 26 24 23 23 22 21 20 19 18 16 14 12 10 9 8 7 6 6 5 4 3
5 2 6 3 4 7 7 6 9 5 7 7 24 23 24 9 16 5 20 30 30 28 28 26 26 27 26 25 23 22 20 18 14 14 12 10 8 7 7 6 6 5 5 6
8 8 5 3 2 8 14 7 9 7 6 11 21 28 32 30 26 13 12 28 31 30 30 30 30 29 28 28 26 25 23 18 18 17 14 12 10 8 8 8 8 8 7 7
5 7 8 11 8 3 28 4 17 10 12 13 20 25 29 32 23 22 15 19 30 31 30 31 32 31 30 30 29 27 23 22 21 19 17 14 12 11 11 11 11 11 10 9
4 4 5 4 7 10 22 24 21 12 11 14 15 18 23 30 29 22 19 18 27 32 32 31 33 34 33 32 31 27 24 24 23 21 20 18 16 15 14 14 13 12 11 10
5 12 9 4 5 1 21 29 31 20 14 15 15 15 17 21 23 25 22 20 22 29 33 33 34 34 33 32 32 30 28 27 27 24 22 21 18 17 15 15 12 11 11 10
8 7 8 5 16 11 12 36 25 29 26 20 20 19 17 17 19 22 24 21 20 23 31 34 35 33 32 32 32 31 31 30 29 28 26 23 21 19 17 17 16 15 14 12

GFSCGP_850_spd_132.txt.gz
Wind_Speed
2 3 6 8 7 3 2 3 5 5 5 3 3 6 6 5 4 4 13 24 24 24 24 20 17 8 10 12 16 22 22 22 26 20 12 9 14 23 26 27 28 30 28 25
4 6 10 4 4 4 3 3 5 5 3 1 5 8 5 3 2 5 17 20 22 25 27 24 16 4 6 10 17 21 20 18 21 22 15 20 17 14 24 27 29 29 29 24
7 5 3 6 3 3 3 4 4 5 5 0 5 6 3 2 2 6 18 16 16 22 27 23 10 1 4 15 19 19 20 20 18 19 20 22 24 22 23 29 30 32 30 29
6 5 6 4 4 6 3 3 3 2 4 2 3 4 4 2 6 4 16 17 21 25 20 15 6 3 8 14 18 21 21 22 18 18 21 29 24 29 31 30 28 25 28 32
6 5 5 4 6 7 6 1 1 1 2 3 2 2 6 3 4 6 14 18 21 24 17 17 8 4 6 12 13 14 15 14 12 14 15 16 18 23 27 27 13 21 22 21
5 1 4 7 2 3 3 2 5 4 2 2 2 3 5 3 3 4 9 18 21 23 20 20 16 11 12 10 9 9 8 9 9 8 9 12 16 17 21 17 15 21 26 31
1 3 2 3 3 1 3 5 3 4 3 5 1 2 8 3 2 3 6 15 16 20 20 17 16 15 12 12 11 11 10 12 9 7 10 13 16 16 17 20 23 25 27 30
6 3 7 5 5 7 2 5 5 5 2 5 3 4 4 1 4 2 5 9 10 12 15 15 15 14 12 13 13 11 8 10 8 6 8 7 9 9 14 23 22 23 22 26
5 4 1 2 3 5 3 2 4 6 2 3 3 6 5 1 3 2 6 6 7 9 10 13 12 12 11 10 10 8 8 9 11 11 12 12 11 10 10 16 19 24 21 21
7 3 1 2 5 5 3 7 3 3 1 3 4 4 5 4 4 3 3 3 4 5 8 9 10 10 11 9 10 10 10 10 10 7 6 9 13 15 15 13 12 10 11 11
5 4 2 3 6 8 3 2 4 4 4 4 2 5 6 5 4 4 6 3 1 3 7 9 9 9 10 10 11 11 12 11 13 13 15 12 12 11 11 13 10 7 7 9
6 5 4 6 1 4 4 6 6 4 4 2 3 6 1 5 6 6 6 6 4 4 7 9 12 12 11 12 13 16 16 16 16 16 16 15 12 10 9 8 7 9 10 9
9 2 3 5 4 1 4 5 4 5 3 6 5 5 1 2 5 9 7 7 7 7 9 13 16 16 14 13 12 14 13 15 16 15 18 19 17 19 15 11 11 8 7 7
10 4 6 7 5 5 5 6 6 6 4 5 6 3 6 7 8 11 13 11 9 10 11 14 14 13 13 11 11 13 15 13 13 12 12 11 12 12 11 12 12 10 8 8
5 6 5 5 2 4 5 6 9 9 5 7 6 9 8 12 13 22 19 15 14 13 14 14 13 13 13 11 10 8 9 13 14 15 16 16 16 16 15 15 14 13 12 9
1 3 4 2 5 7 5 7 10 10 4 8 4 8 8 4 18 17 21 21 21 19 18 17 15 15 15 12 11 11 13 15 14 15 15 15 14 14 13 12 11 11 11 10
8 6 4 4 3 5 5 12 15 6 6 10 9 10 6 4 11 24 28 27 27 25 21 21 21 19 16 14 13 14 16 17 16 14 13 13 12 11 10 10 9 9 8 8
8 7 3 3 2 4 6 4 6 15 6 11 5 7 12 13 28 27 30 30 29 26 24 22 20 19 16 16 17 16 16 16 15 13 12 11 9 7 7 6 5 4 4 3
2 6 3 5 5 5 4 6 8 8 9 19 20 8 10 7 10 13 25 30 25 26 24 22 20 18 17 17 18 18 18 17 14 12 11 10 7 6 5 5 5 5 5 4
4 5 4 4 5 8 8 4 10 5 6 8 21 10 11 17 4 6 27 31 27 25 24 24 23 21 20 20 20 19 18 16 14 11 9 8 6 5 4 5 5 5 5 5
4 3 6 4 4 7 6 6 11 6 7 8 25 23 25 7 11 11 22 28 27 26 26 25 24 24 23 23 22 21 19 16 13 12 10 8 7 6 5 6 6 5 5 5
8 7 5 3 3 7 11 7 9 7 5 10 19 27 34 21 14 8 17 27 29 30 29 28 27 26 25 25 24 23 20 16 16 15 13 11 9 7 7 7 8 7 7 6
5 7 8 9 7 5 29 6 17 7 8 11 19 25 29 30 21 18 14 24 29 30 30 29 28 27 27 27 26 23 19 19 18 17 15 13 11 9 8 8 8 8 8 8
5 4 4 4 8 10 21 21 22 9 7 11 15 21 26 28 24 21 18 19 28 30 30 30 31 31 31 30 28 24 22 22 21 20 18 17 15 13 11 11 11 10 9 9
5 10 8 5 4 3 12 25 27 22 11 12 16 19 21 23 25 23 22 21 23 30 32 31 31 32 33 32 30 28 26 25 25 23 21 20 18 16 14 13 12 10 10 9
7 7 10 6 11 10 11 36 29 28 27 17 18 19 20 19 21 24 23 20 20 25 31 33 31 31 31 31 32 30 30 30 29 28 26 24 22 20 18 16 15 15 14 13

GFSCGP_850_spd_135.txt.gz
Wind_Speed
1 2 6 9 5 2 3 2 4 4 4 2 4 7 10 7 4 3 13 19 22 23 25 24 23 16 16 16 20 23 25 27 27 26 10 8 13 21 31 29 31 31 32 30
2 6 8 4 5 4 2 2 4 4 3 3 4 12 3 5 3 5 12 20 23 27 25 23 17 8 9 12 17 19 25 28 29 26 11 10 14 23 27 26 30 30 31 29
6 4 4 5 4 5 3 4 4 5 2 1 5 4 2 2 3 6 13 14 18 22 22 20 12 4 5 8 9 16 19 19 25 27 14 11 19 22 27 26 27 28 28 29
5 4 6 5 4 5 2 4 3 2 1 3 3 4 2 2 1 5 12 12 22 20 19 16 13 7 4 4 7 13 14 19 20 22 22 21 17 17 22 25 23 23 23 25
6 4 4 3 5 7 5 2 2 1 2 1 1 2 3 1 3 5 11 15 18 18 18 19 14 12 11 9 6 4 7 12 11 13 15 23 23 18 20 21 24 21 21 23
4 2 4 6 2 3 5 4 4 3 2 2 2 2 3 3 2 3 7 11 12 15 16 17 17 14 15 11 7 7 6 7 8 9 10 8 16 15 20 17 25 17 17 17
1 3 2 4 4 2 3 3 1 0 1 3 2 0 6 5 5 4 4 7 10 12 13 16 16 16 14 13 12 9 7 7 6 6 4 5 9 11 17 24 24 17 20 29
6 4 8 5 5 6 4 5 4 4 2 2 1 5 2 4 8 4 2 5 5 7 10 13 13 12 14 14 13 11 10 10 7 6 7 8 9 18 14 13 14 16 16 24
5 4 2 2 3 4 4 4 3 6 1 1 2 5 3 6 5 5 5 4 3 5 5 7 10 12 11 10 9 9 10 13 13 12 10 13 12 10 10 12 15 16 16 15
5 3 1 3 5 6 3 8 3 1 3 3 3 4 3 6 8 8 9 7 3 1 2 3 7 10 9 10 11 8 6 8 9 11 14 15 17 14 12 13 13 11 10 12
5 2 2 4 5 8 2 2 4 3 2 3 2 4 6 7 9 12 11 11 8 3 2 3 6 8 8 10 10 11 10 9 9 14 15 17 14 15 17 18 15 12 11 8
6 4 4 5 2 4 3 5 6 3 5 1 0 5 3 6 9 13 14 13 10 6 5 4 7 8 9 9 10 11 13 13 13 13 13 17 18 17 18 15 12 11 12 11
9 3 3 3 3 0 4 5 4 5 3 6 5 4 2 4 7 11 16 14 13 9 8 8 10 11 12 12 12 13 14 14 13 13 12 12 15 15 18 20 20 17 14 13
14 4 6 8 5 5 6 7 7 5 4 6 6 2 5 9 10 13 16 17 18 15 15 14 13 13 11 9 10 14 16 15 14 16 17 17 16 15 16 16 15 14 11 12
6 7 6 4 2 4 5 8 13 12 7 7 5 11 9 12 15 21 24 23 21 20 20 18 16 14 13 11 12 10 11 13 12 12 14 14 14 14 14 14 14 14 13 13
2 5 5 4 5 4 3 5 14 13 3 9 2 8 7 3 15 18 25 28 25 26 24 22 19 18 16 14 12 12 14 15 15 15 16 16 16 14 14 14 12 12 15 14
9 7 5 4 4 5 5 15 13 8 6 12 10 11 6 5 10 22 29 34 34 33 30 27 25 22 19 17 14 15 19 20 19 18 17 16 15 14 14 14 14 14 14 13
8 7 2 4 4 5 5 1 11 17 5 13 5 8 12 12 24 26 32 34 35 34 33 31 28 26 24 20 18 19 19 20 19 17 17 15 13 12 13 13 13 12 11 9
2 6 4 6 4 4 3 5 8 9 10 21 23 9 12 10 8 13 27 31 28 33 31 28 27 28 25 24 22 22 22 20 18 15 14 13 11 11 11 11 10 10 9 8
4 4 4 4 6 8 8 4 12 6 6 11 25 15 11 16 4 8 28 30 29 28 29 30 28 28 24 25 24 24 23 21 18 15 13 12 11 9 9 9 9 9 7 5
4 2 8 4 3 5 6 6 12 6 6 6 25 21 25 11 12 2 19 28 29 27 29 30 30 30 27 26 26 25 24 21 18 17 15 13 12 10 9 9 9 7 6 5
9 7 4 2 4 5 11 8 9 7 2 10 21 30 33 23 19 8 19 28 31 31 31 31 31 31 28 27 27 26 25 21 21 19 17 15 13 11 9 9 8 7 6 5
5 7 7 9 6 2 27 3 15 4 6 8 20 27 31 29 22 16 22 28 31 32 33 32 31 30 30 29 28 27 25 25 24 21 19 17 15 13 11 9 9 8 7 7
3 2 4 5 6 7 20 25 18 7 6 8 15 24 29 33 26 20 17 25 30 31 33 32 32 32 32 31 29 25 25 26 24 23 22 20 18 16 14 12 11 9 8 8
5 10 6 3 2 3 8 29 22 21 10 10 15 22 27 29 26 24 21 21 26 29 31 31 32 32 31 30 28 28 28 28 26 24 23 22 20 17 14 11 9 8 9 9
6 7 11 8 12 10 13 38 28 28 24 17 20 23 25 26 27 24 23 21 21 27 29 30 30 31 31 30 29 29 30 29 28 27 27 24 21 19 17 14 13 12 11 11

GFSCGP_850_spd_138.txt.gz
Wind_Speed
6 8 11 13 11 8 7 8 10 8 5 7 12 12 10 9 11 10 10 13 18 20 23 21 20 20 16 17 18 23 22 19 23 24 15 13 9 15 25 31 33 38 36 30
5 14 13 5 5 9 9 10 12 9 4 6 10 14 11 7 8 4 8 14 16 22 22 18 14 11 10 11 12 15 19 19 27 24 15 12 10 16 19 30 33 35 35 33
15 2 3 10 9 11 12 13 10 10 3 11 10 14 6 4 5 3 6 9 14 15 17 18 11 7 4 4 7 9 12 22 27 21 17 14 11 19 24 26 34 34 35 32
11 14 11 9 12 13 12 7 9 7 5 6 2 4 8 7 7 3 6 7 9 14 17 15 10 8 5 9 10 11 11 14 22 17 16 12 9 22 26 31 37 34 29 29
5 9 9 12 15 13 4 4 4 5 9 8 8 5 5 5 8 4 3 5 8 12 15 15 12 13 13 12 12 10 7 11 11 11 14 14 11 5 24 24 26 23 26 28
11 2 5 4 4 9 11 5 2 3 4 6 4 5 4 6 3 2 1 3 6 9 11 12 10 13 15 12 10 9 7 9 9 8 8 11 14 18 20 22 23 19 20 21
13 14 5 8 8 6 9 6 3 4 5 2 3 5 7 5 5 3 2 4 4 7 8 9 10 12 13 13 11 9 7 8 8 5 9 8 10 14 18 20 24 25 19 17
13 7 17 14 13 8 14 10 4 4 3 1 2 6 1 4 7 6 4 3 4 5 6 7 8 9 11 12 12 11 11 11 10 10 10 9 9 10 21 19 19 21 17 17
8 7 6 7 6 10 7 9 1 1 1 4 5 5 5 6 8 8 8 6 6 4 4 5 6 6 7 7 8 8 11 11 10 9 9 8 9 13 16 15 15 15 12 16
7 4 6 5 6 4 6 12 4 4 4 5 6 5 4 12 13 11 11 11 8 7 6 5 4 6 5 6 5 5 6 9 12 13 12 11 11 10 12 13 17 14 14 12
11 6 6 8 12 15 7 6 4 3 4 3 3 2 0 13 13 14 13 13 11 8 7 7 6 5 5 4 3 5 5 9 11 13 16 17 15 12 12 12 13 12 11 11
20 10 8 13 2 6 14 14 16 6 6 3 4 2 5 10 12 14 15 14 12 8 8 9 8 6 5 5 6 7 8 9 12 13 14 14 18 17 18 17 17 16 15 15
13 10 9 5 5 5 10 15 15 7 2 9 4 3 7 10 12 15 17 16 14 10 10 10 11 10 9 9 10 11 12 12 12 13 15 15 13 12 12 13 14 14 12 11
23 8 19 12 4 10 11 20 20 17 9 7 11 4 12 14 14 17 19 19 17 14 12 14 14 14 12 12 12 14 14 14 13 13 13 13 13 12 13 14 15 15 13 12
14 14 16 8 5 10 8 18 22 21 20 11 3 15 12 19 19 24 23 21 20 17 16 17 18 16 12 13 15 15 16 16 16 17 16 16 15 14 14 14 14 14 13 12
5 8 13 15 8 9 5 11 20 23 22 20 15 14 6 14 21 22 25 25 25 23 20 18 18 17 14 14 15 15 15 15 13 13 15 17 18 18 17 17 17 16 16 14
11 8 9 16 12 6 11 19 19 14 16 22 16 15 8 11 18 28 29 30 30 29 26 22 21 19 18 16 13 15 18 18 18 17 18 18 18 17 16 15 15 15 15 13
14 15 5 6 11 10 6 5 21 24 18 23 16 12 15 16 25 27 31 35 32 31 31 28 25 24 21 19 17 16 19 20 21 20 19 18 16 15 15 15 14 13 12 12
19 14 10 7 12 5 5 6 10 15 16 23 25 18 16 9 14 15 29 32 34 34 32 31 29 30 26 24 22 21 22 21 19 18 17 16 15 14 14 14 13 12 12 11
14 14 14 6 10 12 10 11 13 8 11 12 26 22 18 18 11 10 31 32 30 30 30 30 29 29 30 28 26 26 26 25 22 21 19 18 16 15 14 14 13 14 13 12
8 10 17 16 10 6 3 11 19 11 5 6 26 26 29 18 14 11 27 31 31 32 32 30 31 31 30 31 30 29 28 27 23 21 20 18 16 15 15 15 15 14 13 12
14 13 11 16 15 13 11 11 12 8 2 5 16 25 32 22 19 9 26 32 34 35 35 35 33 32 31 32 32 31 29 26 25 23 21 19 18 17 16 15 15 14 12 10
9 10 12 12 13 2 33 8 16 3 3 7 15 21 26 25 22 18 24 30 35 37 37 37 35 32 33 33 33 32 31 30 28 26 23 21 19 16 15 15 15 14 13 12
17 6 6 7 12 8 23 13 17 5 3 5 11 20 27 28 24 21 25 30 31 35 37 38 36 36 36 35 34 31 32 31 30 28 26 24 22 20 18 17 16 15 15 14
14 15 13 9 5 5 11 28 24 15 9 6 11 20 26 29 27 25 29 31 32 35 36 38 39 38 37 35 34 34 33 33 32 29 28 26 24 22 21 19 17 16 14 13
13 14 15 11 12 14 14 28 21 25 21 12 14 20 26 32 33 27 27 30 33 34 35 37 37 36 35 34 34 35 34 34 33 32 31 30 28 26 24 22 19 18 17 15

GFSCGP_850_spd_141.txt.gz
Wind_Speed
14 10 14 15 14 16 13 13 15 13 6 8 16 16 14 12 14 14 13 11 12 16 19 18 18 18 19 19 19 18 18 18 16 24 18 16 13 10 15 18 22 27 35 40
10 15 17 13 8 9 12 16 16 13 5 8 16 18 15 13 11 11 6 8 11 14 13 16 17 12 10 11 13 13 16 16 18 22 16 15 10 11 13 17 18 33 39 43
18 8 3 12 12 13 15 15 15 15 11 13 17 22 15 7 7 6 6 4 6 8 11 14 14 12 6 6 7 10 13 16 20 20 17 16 14 8 13 18 26 37 34 34
15 21 12 10 14 11 14 13 11 12 8 8 2 7 6 12 10 9 5 1 3 5 8 11 14 14 8 6 4 5 10 15 20 20 18 17 11 11 18 21 33 30 34 32
9 11 13 16 18 15 14 0 5 8 10 14 16 7 9 10 10 11 4 2 2 3 7 10 12 12 10 9 8 8 7 12 10 17 13 10 9 5 11 25 27 32 31 29
20 1 10 13 5 9 5 5 6 8 8 9 18 12 6 10 10 8 6 7 4 3 5 9 9 11 12 10 10 9 9 11 11 6 8 11 4 6 6 28 30 31 31 26
19 20 9 9 8 5 10 7 3 5 5 4 4 5 13 8 6 6 8 9 5 3 3 5 8 12 12 13 11 9 9 11 13 11 9 8 4 5 13 14 23 29 28 24
18 11 24 18 20 9 17 15 5 5 4 2 2 7 2 6 10 10 9 8 7 4 4 4 5 8 9 11 10 7 6 8 10 8 9 9 9 3 15 12 20 18 13 24
11 12 6 6 16 16 11 13 13 13 11 6 7 10 5 9 11 11 11 11 9 6 5 4 4 5 5 7 10 11 10 8 7 9 8 9 9 15 21 13 22 23 17 14
11 8 10 6 8 10 10 10 7 6 4 6 8 10 6 15 15 13 12 14 12 9 6 4 5 5 4 4 6 6 6 9 8 7 7 10 12 13 20 17 14 15 14 12
19 12 7 9 14 16 10 12 8 5 9 4 5 3 7 14 16 15 14 16 15 12 9 7 7 6 5 4 4 5 6 8 9 9 12 13 14 14 13 14 15 14 13 12
26 12 12 16 1 17 20 18 18 7 9 8 9 3 4 11 12 15 16 17 16 14 11 9 8 8 5 6 6 5 8 9 10 12 10 12 13 13 15 16 14 13 13 13
13 14 13 13 7 7 12 20 20 19 11 12 8 1 4 10 11 14 17 18 18 16 13 11 9 8 8 9 7 9 11 12 11 11 12 15 15 15 13 13 11 10 10 11
7 15 24 17 14 14 12 21 23 20 14 16 16 5 11 12 13 14 18 19 19 18 16 15 13 11 11 10 10 11 12 12 13 13 13 13 13 11 10 12 11 11 11 10
7 13 23 24 25 9 13 21 26 27 26 15 16 16 13 17 17 19 21 21 21 20 18 18 18 15 13 13 13 13 13 13 13 12 14 16 16 15 14 14 12 11 11 12
6 14 19 22 23 12 14 16 22 28 25 24 17 12 6 19 21 20 23 24 23 23 21 22 21 18 16 16 17 17 16 15 16 15 14 15 15 15 14 12 12 12 12 12
5 12 17 18 20 11 15 23 20 21 24 24 21 21 9 11 19 25 27 27 27 26 25 25 24 20 17 18 19 19 18 16 15 15 15 15 15 14 14 15 14 13 12 12
6 7 9 13 14 16 14 18 21 22 23 21 21 11 9 14 22 26 27 29 28 27 27 26 24 23 20 19 17 17 17 15 16 17 16 15 15 15 15 15 14 14 14 13
11 6 5 9 13 12 5 4 21 18 20 21 21 17 14 14 15 21 28 28 29 29 28 27 25 24 23 21 20 20 19 18 18 17 16 15 15 16 16 16 15 14 13 11
19 15 7 5 17 21 12 11 14 13 13 16 22 19 19 18 13 12 31 31 28 28 28 28 27 26 24 23 22 22 20 20 18 17 17 16 15 14 14 14 13 11 10 10
12 6 11 13 11 14 10 14 17 14 5 17 24 28 27 20 18 17 34 32 30 31 30 29 30 28 26 26 23 23 21 20 18 18 18 17 15 15 14 15 14 14 12 11
14 13 7 11 16 20 9 13 14 8 1 1 11 23 35 31 17 23 36 36 35 34 32 32 31 28 27 28 26 24 23 21 21 20 20 19 18 18 17 17 16 15 13 12
17 11 12 14 18 5 23 11 27 5 3 2 7 17 26 29 20 26 33 37 37 38 36 34 32 28 27 27 27 25 25 24 24 23 22 21 18 16 15 15 15 13 12 12
24 22 16 16 19 24 14 22 14 11 3 5 9 16 27 28 23 27 33 34 35 36 37 36 33 31 30 28 29 24 26 27 26 25 23 21 20 18 17 16 15 14 14 13
12 16 19 22 21 17 26 22 15 20 7 3 8 16 25 27 27 31 33 35 35 38 38 40 37 34 32 32 31 27 29 30 28 26 24 23 20 19 18 16 16 16 14 13
13 14 13 12 18 17 22 27 22 25 14 9 10 17 21 25 28 31 34 36 38 40 39 38 36 36 35 33 32 31 32 32 31 28 27 27 26 24 23 20 19 18 17 15

GFSCGP_850_spd_147.txt.gz
Wind_Speed
11 3 8 11 9 8 8 6 7 6 4 6 11 10 11 18 18 17 22 19 15 10 4 8 16 21 20 14 10 11 15 18 21 19 17 19 20 21 18 19 19 19 20 21
4 13 13 11 12 10 10 9 5 5 7 2 5 11 10 10 12 17 25 16 15 8 3 11 13 12 11 11 11 10 12 16 18 20 18 18 17 16 16 20 21 19 19 21
12 12 13 15 14 11 8 4 4 7 7 4 5 9 8 5 6 20 20 19 11 5 2 4 6 10 10 7 9 10 8 8 19 23 20 18 16 18 17 18 18 20 17 21
9 18 18 9 10 10 5 7 5 3 2 4 5 6 6 4 5 6 21 19 14 8 5 3 4 5 6 4 5 4 6 8 17 21 20 19 20 18 19 17 19 16 14 20
9 5 10 15 17 8 7 4 3 0 2 4 2 2 7 3 6 8 10 22 17 11 9 5 1 4 4 3 3 3 6 11 12 16 19 21 21 21 21 17 15 14 11 14
13 20 4 8 4 5 6 4 2 2 3 3 6 9 5 4 9 8 11 24 20 14 12 7 4 3 2 4 4 7 9 11 11 14 17 17 15 15 17 16 17 16 14 21
10 17 7 5 4 2 6 7 2 2 1 6 4 5 11 6 10 15 18 25 23 18 16 10 7 4 4 3 5 7 10 10 12 14 15 15 11 9 13 15 17 15 19 23
9 10 13 5 10 7 7 8 6 6 4 5 5 5 5 2 7 24 28 30 26 21 16 13 9 6 4 4 3 6 9 9 9 12 13 10 9 2 2 8 13 20 20 24
5 7 8 12 6 14 5 8 7 2 2 2 4 6 3 3 8 16 23 29 27 23 17 15 12 9 7 5 5 5 8 9 10 10 12 12 8 2 3 3 8 19 27 34
9 16 7 5 8 6 9 6 3 1 3 5 6 5 6 8 11 13 15 22 26 22 19 17 14 12 9 7 4 5 7 9 8 8 10 10 9 6 4 4 7 15 31 32
16 13 5 3 4 11 5 6 3 5 5 5 3 5 5 18 17 17 14 23 28 25 21 19 16 14 11 9 7 6 8 9 8 6 6 6 7 8 5 4 11 18 16 16
7 12 17 18 6 7 14 18 15 5 5 5 3 6 3 10 16 20 20 26 29 26 22 21 18 16 14 13 11 10 10 9 10 10 9 9 9 9 11 6 11 15 18 17
10 5 12 1 4 4 6 5 11 9 2 6 5 5 3 8 12 22 24 29 32 29 25 22 20 18 17 15 15 12 11 12 12 11 12 11 12 12 14 14 13 14 13 14
16 5 11 17 10 7 6 11 12 15 13 8 8 4 2 6 11 13 24 32 34 33 27 25 23 20 18 17 16 17 14 12 13 13 13 15 15 16 18 17 15 15 14 14
2 6 10 15 11 9 10 14 23 23 20 12 17 17 10 10 12 21 26 32 35 34 28 27 26 24 22 19 18 18 17 14 13 14 16 16 16 18 18 16 15 15 17 17
2 5 10 11 12 9 15 14 10 18 21 20 17 10 12 21 17 21 30 31 33 36 31 29 28 27 25 23 21 20 19 18 16 16 15 13 13 14 15 16 17 16 16 17
0 5 6 7 13 7 11 23 21 10 18 15 20 22 2 4 17 25 30 35 36 39 34 31 31 30 28 26 25 22 21 19 19 19 17 16 17 18 16 15 15 14 14 14
6 7 6 4 6 13 11 6 14 18 12 21 16 9 12 11 28 36 43 42 38 40 36 34 34 33 30 27 25 24 22 21 21 22 22 20 20 19 19 19 18 17 15 14
12 5 4 6 5 11 7 14 4 6 14 8 15 16 13 17 23 16 41 43 42 42 37 34 35 34 31 30 29 28 27 25 23 23 22 22 20 20 18 18 17 16 16 16
14 14 8 6 3 5 10 16 9 3 15 10 16 16 19 13 7 9 41 44 39 40 36 35 37 35 32 33 32 31 30 29 28 27 24 21 20 18 18 17 17 16 14 14
4 12 17 12 10 9 7 16 19 10 6 14 27 26 21 14 26 18 37 43 42 41 39 34 37 38 34 35 35 34 31 29 26 25 22 21 19 18 17 17 15 15 14 14
9 5 8 11 11 20 14 14 11 6 9 6 8 16 22 38 31 29 34 45 44 43 41 36 40 39 35 35 37 34 31 28 28 25 23 22 22 21 20 17 17 16 14 14
11 11 4 4 8 12 8 25 34 29 19 6 14 21 21 33 30 29 38 47 48 46 43 40 43 41 38 35 37 36 32 31 29 27 24 23 21 20 19 18 17 17 15 13
7 15 14 12 17 17 26 36 29 29 20 23 24 23 22 20 36 35 41 46 49 48 46 45 44 44 42 37 36 33 34 32 29 28 26 24 23 22 20 18 16 15 15 14
7 5 5 10 13 23 36 35 44 38 40 38 35 29 20 17 36 38 43 48 50 49 48 47 46 45 44 40 37 36 35 33 30 28 27 25 23 21 19 17 15 13 11 8
12 12 7 10 16 16 26 38 23 21 26 31 26 27 17 14 33 40 43 48 50 50 49 47 45 44 43 41 38 38 36 33 32 30 29 27 24 22 20 19 18 16 12 12

GFSCGP_850_spd_150.txt.gz
Wind_Speed
5 3 9 12 8 5 1 3 6 6 9 6 8 10 13 18 18 20 21 19 20 21 16 12 11 12 15 16 15 14 12 18 17 19 20 21 20 21 21 18 21 19 25 28
1 11 11 7 6 8 8 8 9 9 6 5 7 11 11 9 12 24 31 22 28 21 15 8 7 8 8 10 11 13 10 12 15 20 18 20 19 21 21 19 17 18 19 24
11 7 5 11 9 8 9 9 6 8 4 4 4 10 8 4 3 6 14 28 28 22 15 7 6 8 8 7 8 9 11 14 16 18 20 22 20 21 21 23 22 21 19 20
9 19 16 7 8 10 13 8 10 5 2 3 3 6 7 7 5 4 19 29 24 18 10 5 4 3 3 3 6 8 8 10 9 16 18 20 24 26 26 23 21 22 20 22
9 6 9 14 20 8 9 8 6 4 2 2 3 2 6 1 5 7 8 22 20 15 11 9 4 1 2 3 3 5 6 8 10 14 15 20 24 23 20 21 20 18 19 24
14 12 4 7 7 13 4 4 6 5 2 4 8 8 6 4 7 6 7 21 22 19 14 10 7 3 2 2 1 3 3 8 8 11 12 19 18 17 16 20 22 22 18 20
10 16 8 7 5 2 4 6 2 3 2 6 3 3 10 6 6 15 18 25 25 20 17 14 9 5 3 2 1 4 5 4 6 9 12 13 12 14 16 17 20 19 19 17
12 6 16 9 18 7 7 9 6 6 4 5 1 6 6 4 7 16 23 29 27 22 19 15 11 7 6 5 3 5 7 5 8 9 10 10 10 9 8 11 14 18 19 18
7 7 5 5 10 13 6 5 7 4 1 1 5 7 8 5 6 16 22 28 29 25 21 18 14 9 7 4 5 5 8 9 9 10 12 12 15 6 3 5 8 13 15 17
6 11 10 6 5 4 11 8 3 2 3 5 5 5 8 5 6 9 14 21 27 26 22 19 16 12 9 6 4 6 7 8 9 10 10 12 13 6 4 7 9 13 16 18
2 12 9 4 8 10 3 5 3 5 6 5 2 6 6 12 13 17 13 23 31 29 26 22 17 14 11 8 6 6 7 8 7 7 8 9 7 7 5 1 5 7 14 28
5 4 10 21 4 6 17 15 8 5 5 5 3 6 3 8 14 17 20 24 30 28 26 23 19 16 14 11 10 8 8 7 8 7 8 9 7 8 6 5 6 14 18 21
7 3 3 1 4 4 4 4 7 5 3 7 5 5 4 5 9 18 22 26 31 30 28 23 21 18 16 14 13 11 10 8 8 7 7 8 8 8 10 10 10 14 14 15
6 2 3 4 4 10 5 9 11 11 11 7 9 5 3 2 7 9 21 29 32 34 31 27 24 21 19 17 15 14 12 10 9 10 9 10 10 12 13 11 13 13 13 15
5 8 8 9 13 15 18 20 18 15 17 14 17 15 14 8 10 19 25 29 32 33 33 31 28 25 22 20 18 16 15 12 11 12 12 13 14 14 13 11 12 13 12 13
4 3 7 17 13 15 19 19 20 23 20 21 14 8 5 16 12 17 29 33 32 37 36 33 30 28 26 24 22 20 17 16 15 15 16 14 14 14 12 11 13 13 14 15
4 4 3 16 6 12 9 20 17 11 10 10 14 14 10 4 9 21 27 36 39 42 41 36 35 33 30 27 24 23 20 19 19 19 17 14 13 14 15 15 14 14 15 16
6 3 2 3 1 10 9 16 12 12 11 10 8 8 10 17 28 30 39 44 40 43 42 38 36 35 32 29 26 25 22 20 21 20 18 15 17 17 15 14 14 15 14 14
9 5 2 2 7 13 14 8 6 5 18 12 13 16 20 21 12 12 34 42 44 45 42 40 34 37 35 32 30 27 25 24 22 20 18 17 17 16 17 16 15 15 15 15
8 6 5 2 5 8 3 3 9 5 13 7 8 11 12 11 6 8 28 38 39 38 40 39 35 37 36 36 32 29 28 27 26 25 23 21 20 19 17 17 17 17 15 16
5 5 12 10 7 8 6 4 14 3 2 2 7 16 16 11 17 27 26 37 43 40 40 39 36 37 36 38 35 33 31 30 28 27 25 23 20 18 17 18 18 17 17 16
6 5 5 7 10 18 10 4 6 4 16 22 21 18 21 17 19 27 28 34 43 44 41 41 38 40 39 39 39 37 35 32 30 28 25 23 22 21 19 18 18 17 16 16
4 7 4 6 4 6 26 22 34 31 27 27 27 32 30 30 30 21 30 37 44 47 44 43 41 42 41 41 40 40 37 34 31 29 27 25 24 22 21 20 19 18 17 16
5 7 6 4 10 17 35 42 38 24 28 34 32 35 38 37 34 23 27 39 43 47 46 46 43 44 44 43 41 35 34 33 32 31 28 27 26 24 22 19 17 17 16 15
5 1 5 6 11 14 28 33 37 34 30 33 30 33 35 36 38 28 28 42 46 49 48 48 45 46 46 44 43 39 36 35 35 32 29 28 27 26 24 21 17 15 13 9
14 16 8 10 23 17 21 28 23 26 23 18 29 32 35 33 31 30 29 43 46 49 50 49 45 45 47 44 43 41 39 36 35 34 31 29 28 27 24 22 20 16 11 12